www.cux-wetter.de
Wetterdaten: Sonntag, 30.08.2015
Datum Zeit Temp. A. Feuchte A. Luftdruck Regen Wind Richtung Richtung Sonnenschein Solar Taupunkt Windchill Windben
30.08.2015 00:00 13,6 C 94 % 1020,4 hPa 0,0 l/m 0,0 km/h (0 Bft) SW 215 0 min 0 W/m 12,7 C 13,6 C 0,0 km/h (0 Bft)
30.08.2015 00:03 13,7 C 94 % 1020,4 hPa 0,0 l/m 0,0 km/h (0 Bft) SW 215 0 min 0 W/m 12,8 C 13,7 C 0,0 km/h (0 Bft)
30.08.2015 00:06 13,7 C 94 % 1020,4 hPa 0,0 l/m 0,0 km/h (0 Bft) SW 215 0 min 0 W/m 12,8 C 13,7 C 0,0 km/h (0 Bft)
30.08.2015 00:09 13,7 C 94 % 1020,3 hPa 0,0 l/m 0,0 km/h (0 Bft) SW 215 0 min 0 W/m 12,8 C 13,7 C 0,0 km/h (0 Bft)
30.08.2015 00:12 13,7 C 94 % 1020,3 hPa 0,0 l/m 0,0 km/h (0 Bft) SW 215 0 min 0 W/m 12,8 C 13,7 C 0,0 km/h (0 Bft)
30.08.2015 00:15 13,7 C 94 % 1020,2 hPa 0,0 l/m 0,0 km/h (0 Bft) SW 215 0 min 0 W/m 12,8 C 13,7 C 0,0 km/h (0 Bft)
30.08.2015 00:18 13,7 C 94 % 1020,2 hPa 0,0 l/m 0,0 km/h (0 Bft) SW 215 0 min 0 W/m 12,8 C 13,7 C 0,0 km/h (0 Bft)
30.08.2015 00:21 13,8 C 94 % 1020,3 hPa 0,0 l/m 0,0 km/h (0 Bft) SW 215 0 min 0 W/m 12,9 C 13,8 C 0,0 km/h (0 Bft)
30.08.2015 00:24 13,9 C 93 % 1020,2 hPa 0,0 l/m 0,0 km/h (0 Bft) SW 215 0 min 0 W/m 12,8 C 13,9 C 0,0 km/h (0 Bft)
30.08.2015 00:27 13,9 C 93 % 1020,3 hPa 0,0 l/m 0,0 km/h (0 Bft) SW 215 0 min 0 W/m 12,8 C 13,9 C 0,0 km/h (0 Bft)
30.08.2015 00:30 14,0 C 93 % 1020,3 hPa 0,0 l/m 0,0 km/h (0 Bft) SW 215 0 min 0 W/m 12,9 C 14,0 C 0,0 km/h (0 Bft)
30.08.2015 00:33 14,1 C 93 % 1020,2 hPa 0,0 l/m 0,5 km/h (0 Bft) SW 215 0 min 0 W/m 13,0 C 14,1 C 1,6 km/h (1 Bft)
30.08.2015 00:36 14,1 C 93 % 1020,3 hPa 0,0 l/m 0,1 km/h (0 Bft) SW 215 0 min 0 W/m 13,0 C 14,1 C 1,6 km/h (1 Bft)
30.08.2015 00:39 14,0 C 93 % 1020,3 hPa 0,0 l/m 0,0 km/h (0 Bft) SW 215 0 min 0 W/m 12,9 C 14,0 C 0,0 km/h (0 Bft)
30.08.2015 00:42 13,8 C 92 % 1020,3 hPa 0,0 l/m 0,0 km/h (0 Bft) SW 215 0 min 0 W/m 12,5 C 13,8 C 0,0 km/h (0 Bft)
30.08.2015 00:45 13,6 C 92 % 1020,3 hPa 0,0 l/m 0,1 km/h (0 Bft) SW 215 0 min 0 W/m 12,3 C 13,6 C 1,6 km/h (1 Bft)
30.08.2015 00:48 13,6 C 93 % 1020,3 hPa 0,0 l/m 0,2 km/h (0 Bft) SW 215 0 min 0 W/m 12,5 C 13,6 C 1,6 km/h (1 Bft)
30.08.2015 00:51 13,6 C 94 % 1020,2 hPa 0,0 l/m 0,0 km/h (0 Bft) SW 215 0 min 0 W/m 12,7 C 13,6 C 0,0 km/h (0 Bft)
30.08.2015 00:54 13,7 C 94 % 1020,2 hPa 0,0 l/m 0,0 km/h (0 Bft) SW 215 0 min 0 W/m 12,8 C 13,7 C 0,0 km/h (0 Bft)
30.08.2015 00:57 13,7 C 94 % 1020,2 hPa 0,0 l/m 0,0 km/h (0 Bft) SW 215 0 min 0 W/m 12,8 C 13,7 C 0,0 km/h (0 Bft)
30.08.2015 01:00 13,7 C 93 % 1020,2 hPa 0,0 l/m 0,0 km/h (0 Bft) SW 215 0 min 0 W/m 12,6 C 13,7 C 0,0 km/h (0 Bft)
30.08.2015 01:03 13,7 C 94 % 1020,2 hPa 0,0 l/m 0,0 km/h (0 Bft) SW 215 0 min 0 W/m 12,8 C 13,7 C 0,0 km/h (0 Bft)
30.08.2015 01:06 13,7 C 93 % 1020,2 hPa 0,0 l/m 0,0 km/h (0 Bft) SW 215 0 min 0 W/m 12,6 C 13,7 C 0,0 km/h (0 Bft)
30.08.2015 01:09 13,7 C 93 % 1020,1 hPa 0,0 l/m 0,1 km/h (0 Bft) SW 215 0 min 0 W/m 12,6 C 13,7 C 1,6 km/h (1 Bft)
30.08.2015 01:12 13,7 C 94 % 1020,0 hPa 0,0 l/m 1,1 km/h (1 Bft) SW 215 0 min 0 W/m 12,8 C 13,7 C 1,6 km/h (1 Bft)
30.08.2015 01:15 13,7 C 94 % 1019,9 hPa 0,0 l/m 0,7 km/h (0 Bft) SW 215 0 min 0 W/m 12,8 C 13,7 C 1,6 km/h (1 Bft)
30.08.2015 01:18 13,7 C 94 % 1020,0 hPa 0,0 l/m 0,3 km/h (0 Bft) SW 215 0 min 0 W/m 12,8 C 13,7 C 1,6 km/h (1 Bft)
30.08.2015 01:21 13,6 C 94 % 1020,0 hPa 0,0 l/m 0,0 km/h (0 Bft) SW 215 0 min 0 W/m 12,7 C 13,6 C 1,6 km/h (1 Bft)
30.08.2015 01:24 13,6 C 94 % 1019,9 hPa 0,0 l/m 0,0 km/h (0 Bft) SW 215 0 min 0 W/m 12,7 C 13,6 C 0,0 km/h (0 Bft)
30.08.2015 01:27 13,6 C 94 % 1019,9 hPa 0,0 l/m 0,0 km/h (0 Bft) SW 215 0 min 0 W/m 12,7 C 13,6 C 0,0 km/h (0 Bft)
30.08.2015 01:30 13,6 C 94 % 1019,8 hPa 0,0 l/m 0,0 km/h (0 Bft) SW 215 0 min 0 W/m 12,7 C 13,6 C 0,0 km/h (0 Bft)
30.08.2015 01:33 13,6 C 95 % 1019,7 hPa 0,0 l/m 0,0 km/h (0 Bft) SW 215 0 min 0 W/m 12,8 C 13,6 C 0,0 km/h (0 Bft)
30.08.2015 01:36 13,6 C 95 % 1019,8 hPa 0,0 l/m 0,0 km/h (0 Bft) SW 215 0 min 0 W/m 12,8 C 13,6 C 0,0 km/h (0 Bft)
30.08.2015 01:39 13,6 C 95 % 1019,9 hPa 0,0 l/m 0,0 km/h (0 Bft) SW 215 0 min 0 W/m 12,8 C 13,6 C 0,0 km/h (0 Bft)
30.08.2015 01:42 13,6 C 94 % 1020,0 hPa 0,0 l/m 0,0 km/h (0 Bft) SW 215 0 min 0 W/m 12,7 C 13,6 C 0,0 km/h (0 Bft)
30.08.2015 01:45 13,4 C 93 % 1019,9 hPa 0,0 l/m 0,0 km/h (0 Bft) SW 215 0 min 0 W/m 12,3 C 13,4 C 0,0 km/h (0 Bft)
30.08.2015 01:48 13,3 C 93 % 1019,9 hPa 0,0 l/m 0,0 km/h (0 Bft) SW 215 0 min 0 W/m 12,2 C 13,3 C 0,0 km/h (0 Bft)
30.08.2015 01:51 13,3 C 93 % 1019,8 hPa 0,0 l/m 0,0 km/h (0 Bft) SW 215 0 min 0 W/m 12,2 C 13,3 C 0,0 km/h (0 Bft)
30.08.2015 01:54 13,3 C 94 % 1019,8 hPa 0,0 l/m 0,0 km/h (0 Bft) SW 215 0 min 0 W/m 12,4 C 13,3 C 0,0 km/h (0 Bft)
30.08.2015 01:57 13,3 C 94 % 1019,9 hPa 0,0 l/m 0,0 km/h (0 Bft) SW 215 0 min 0 W/m 12,4 C 13,3 C 0,0 km/h (0 Bft)
30.08.2015 02:00 13,3 C 94 % 1019,9 hPa 0,0 l/m 0,0 km/h (0 Bft) SW 215 0 min 0 W/m 12,4 C 13,3 C 0,0 km/h (0 Bft)
30.08.2015 02:03 13,2 C 93 % 1020,0 hPa 0,0 l/m 0,0 km/h (0 Bft) SW 215 0 min 0 W/m 12,1 C 13,2 C 1,6 km/h (1 Bft)
30.08.2015 02:06 13,1 C 94 % 1020,0 hPa 0,0 l/m 0,0 km/h (0 Bft) SW 215 0 min 0 W/m 12,2 C 13,1 C 0,0 km/h (0 Bft)
30.08.2015 02:09 13,1 C 94 % 1020,1 hPa 0,0 l/m 0,0 km/h (0 Bft) SW 215 0 min 0 W/m 12,2 C 13,1 C 0,0 km/h (0 Bft)
30.08.2015 02:12 13,2 C 94 % 1020,1 hPa 0,0 l/m 0,0 km/h (0 Bft) SW 215 0 min 0 W/m 12,3 C 13,2 C 0,0 km/h (0 Bft)
30.08.2015 02:15 13,1 C 94 % 1020,2 hPa 0,0 l/m 0,0 km/h (0 Bft) SW 215 0 min 0 W/m 12,2 C 13,1 C 0,0 km/h (0 Bft)
30.08.2015 02:18 13,1 C 94 % 1020,2 hPa 0,0 l/m 0,0 km/h (0 Bft) SW 215 0 min 0 W/m 12,2 C 13,1 C 0,0 km/h (0 Bft)
30.08.2015 02:21 13,1 C 94 % 1020,2 hPa 0,0 l/m 0,0 km/h (0 Bft) SW 215 0 min 0 W/m 12,2 C 13,1 C 0,0 km/h (0 Bft)
30.08.2015 02:24 13,1 C 94 % 1020,1 hPa 0,0 l/m 0,0 km/h (0 Bft) SW 215 0 min 0 W/m 12,2 C 13,1 C 0,0 km/h (0 Bft)
30.08.2015 02:27 13,2 C 94 % 1020,1 hPa 0,0 l/m 0,0 km/h (0 Bft) SW 215 0 min 0 W/m 12,3 C 13,2 C 0,0 km/h (0 Bft)
30.08.2015 02:30 13,2 C 94 % 1020,2 hPa 0,0 l/m 0,0 km/h (0 Bft) SW 215 0 min 0 W/m 12,3 C 13,2 C 0,0 km/h (0 Bft)
30.08.2015 02:33 13,3 C 94 % 1020,1 hPa 0,0 l/m 0,0 km/h (0 Bft) SW 215 0 min 0 W/m 12,4 C 13,3 C 0,0 km/h (0 Bft)
30.08.2015 02:36 13,4 C 94 % 1020,0 hPa 0,0 l/m 0,0 km/h (0 Bft) SW 215 0 min 0 W/m 12,5 C 13,4 C 0,0 km/h (0 Bft)
30.08.2015 02:39 13,5 C 94 % 1019,9 hPa 0,0 l/m 0,0 km/h (0 Bft) SW 215 0 min 0 W/m 12,6 C 13,5 C 0,0 km/h (0 Bft)
30.08.2015 02:42 13,6 C 95 % 1019,8 hPa 0,0 l/m 0,0 km/h (0 Bft) SW 215 0 min 0 W/m 12,8 C 13,6 C 0,0 km/h (0 Bft)
30.08.2015 02:45 13,7 C 95 % 1019,8 hPa 0,0 l/m 0,0 km/h (0 Bft) W 272 0 min 0 W/m 12,9 C 13,7 C 0,0 km/h (0 Bft)
30.08.2015 02:48 13,9 C 95 % 1019,8 hPa 0,0 l/m 0,0 km/h (0 Bft) W 272 0 min 0 W/m 13,1 C 13,9 C 0,0 km/h (0 Bft)
30.08.2015 02:51 14,2 C 96 % 1019,8 hPa 0,0 l/m 0,9 km/h (0 Bft) W-NW 290 0 min 0 W/m 13,6 C 14,2 C 4,8 km/h (1 Bft)
30.08.2015 02:54 14,3 C 95 % 1019,9 hPa 0,0 l/m 1,7 km/h (1 Bft) W-NW 290 0 min 0 W/m 13,5 C 14,3 C 3,2 km/h (1 Bft)
30.08.2015 02:57 14,3 C 95 % 1019,9 hPa 0,0 l/m 2,3 km/h (1 Bft) N 355 0 min 0 W/m 13,5 C 14,3 C 4,8 km/h (1 Bft)
30.08.2015 03:00 14,4 C 95 % 1019,9 hPa 0,0 l/m 1,8 km/h (1 Bft) N 355 0 min 0 W/m 13,6 C 14,4 C 4,8 km/h (1 Bft)
30.08.2015 03:03 14,5 C 95 % 1019,8 hPa 0,0 l/m 1,1 km/h (1 Bft) N 355 0 min 0 W/m 13,7 C 14,5 C 3,2 km/h (1 Bft)
30.08.2015 03:06 14,6 C 95 % 1019,7 hPa 0,0 l/m 1,0 km/h (0 Bft) N 355 0 min 0 W/m 13,8 C 14,6 C 1,6 km/h (1 Bft)
30.08.2015 03:09 14,6 C 95 % 1019,5 hPa 0,0 l/m 0,2 km/h (0 Bft) N 355 0 min 0 W/m 13,8 C 14,6 C 1,6 km/h (1 Bft)
30.08.2015 03:12 14,7 C 95 % 1019,7 hPa 0,0 l/m 0,4 km/h (0 Bft) N 355 0 min 0 W/m 13,9 C 14,7 C 1,6 km/h (1 Bft)
30.08.2015 03:15 14,7 C 95 % 1019,9 hPa 0,0 l/m 0,5 km/h (0 Bft) N 355 0 min 0 W/m 13,9 C 14,7 C 3,2 km/h (1 Bft)
30.08.2015 03:18 14,7 C 95 % 1019,8 hPa 0,0 l/m 0,0 km/h (0 Bft) N 355 0 min 0 W/m 13,9 C 14,7 C 1,6 km/h (1 Bft)
30.08.2015 03:21 14,7 C 95 % 1019,7 hPa 0,0 l/m 0,1 km/h (0 Bft) N 355 0 min 0 W/m 13,9 C 14,7 C 1,6 km/h (1 Bft)
30.08.2015 03:24 14,7 C 95 % 1019,7 hPa 0,0 l/m 0,4 km/h (0 Bft) N 355 0 min 0 W/m 13,9 C 14,7 C 1,6 km/h (1 Bft)
30.08.2015 03:27 14,8 C 95 % 1019,5 hPa 0,0 l/m 0,3 km/h (0 Bft) N 355 0 min 0 W/m 14,0 C 14,8 C 1,6 km/h (1 Bft)
30.08.2015 03:30 14,8 C 95 % 1019,6 hPa 0,0 l/m 0,0 km/h (0 Bft) N 355 0 min 0 W/m 14,0 C 14,8 C 1,6 km/h (1 Bft)
30.08.2015 03:33 14,8 C 95 % 1019,5 hPa 0,0 l/m 0,0 km/h (0 Bft) N 355 0 min 0 W/m 14,0 C 14,8 C 1,6 km/h (1 Bft)
30.08.2015 03:36 14,8 C 94 % 1019,4 hPa 0,0 l/m 0,2 km/h (0 Bft) N 355 0 min 0 W/m 13,8 C 14,8 C 1,6 km/h (1 Bft)
30.08.2015 03:39 14,6 C 94 % 1019,3 hPa 0,0 l/m 0,2 km/h (0 Bft) N 355 0 min 0 W/m 13,6 C 14,6 C 1,6 km/h (1 Bft)
30.08.2015 03:42 14,6 C 94 % 1019,4 hPa 0,0 l/m 0,0 km/h (0 Bft) N 355 0 min 0 W/m 13,6 C 14,6 C 0,0 km/h (0 Bft)
30.08.2015 03:45 14,6 C 94 % 1019,3 hPa 0,0 l/m 0,0 km/h (0 Bft) N 355 0 min 0 W/m 13,6 C 14,6 C 0,0 km/h (0 Bft)
30.08.2015 03:48 14,6 C 94 % 1019,3 hPa 0,0 l/m 0,0 km/h (0 Bft) N 355 0 min 0 W/m 13,6 C 14,6 C 0,0 km/h (0 Bft)
30.08.2015 03:51 14,7 C 94 % 1019,2 hPa 0,0 l/m 0,5 km/h (0 Bft) N 355 0 min 0 W/m 13,7 C 14,7 C 1,6 km/h (1 Bft)
30.08.2015 03:54 14,7 C 95 % 1019,2 hPa 0,0 l/m 0,6 km/h (0 Bft) N 355 0 min 0 W/m 13,9 C 14,7 C 1,6 km/h (1 Bft)
30.08.2015 03:57 14,7 C 94 % 1019,2 hPa 0,0 l/m 0,6 km/h (0 Bft) N 355 0 min 0 W/m 13,7 C 14,7 C 1,6 km/h (1 Bft)
30.08.2015 04:00 14,7 C 94 % 1019,3 hPa 0,0 l/m 2,5 km/h (1 Bft) N 355 0 min 0 W/m 13,7 C 14,7 C 3,2 km/h (1 Bft)
30.08.2015 04:03 14,6 C 94 % 1019,2 hPa 0,0 l/m 1,3 km/h (1 Bft) N 355 0 min 0 W/m 13,6 C 14,6 C 3,2 km/h (1 Bft)
30.08.2015 04:06 14,6 C 95 % 1019,3 hPa 0,0 l/m 0,1 km/h (0 Bft) N 355 0 min 0 W/m 13,8 C 14,6 C 1,6 km/h (1 Bft)
30.08.2015 04:09 14,6 C 95 % 1019,4 hPa 0,0 l/m 0,0 km/h (0 Bft) N 355 0 min 0 W/m 13,8 C 14,6 C 1,6 km/h (1 Bft)
30.08.2015 04:12 14,5 C 94 % 1019,4 hPa 0,0 l/m 0,3 km/h (0 Bft) N 355 0 min 0 W/m 13,5 C 14,5 C 1,6 km/h (1 Bft)
30.08.2015 04:15 14,4 C 95 % 1019,2 hPa 0,0 l/m 0,0 km/h (0 Bft) N 355 0 min 0 W/m 13,6 C 14,4 C 0,0 km/h (0 Bft)
30.08.2015 04:18 14,4 C 95 % 1019,2 hPa 0,0 l/m 0,0 km/h (0 Bft) N 355 0 min 0 W/m 13,6 C 14,4 C 0,0 km/h (0 Bft)
30.08.2015 04:21 14,4 C 95 % 1019,2 hPa 0,0 l/m 0,0 km/h (0 Bft) N 355 0 min 0 W/m 13,6 C 14,4 C 0,0 km/h (0 Bft)
30.08.2015 04:24 14,4 C 95 % 1019,3 hPa 0,0 l/m 0,6 km/h (0 Bft) N 355 0 min 0 W/m 13,6 C 14,4 C 1,6 km/h (1 Bft)
30.08.2015 04:27 14,4 C 95 % 1019,1 hPa 0,0 l/m 0,5 km/h (0 Bft) N 355 0 min 0 W/m 13,6 C 14,4 C 1,6 km/h (1 Bft)
30.08.2015 04:30 14,4 C 95 % 1019,1 hPa 0,0 l/m 0,5 km/h (0 Bft) N 355 0 min 0 W/m 13,6 C 14,4 C 1,6 km/h (1 Bft)
30.08.2015 04:33 14,4 C 96 % 1019,1 hPa 0,0 l/m 0,4 km/h (0 Bft) N 355 0 min 0 W/m 13,8 C 14,4 C 1,6 km/h (1 Bft)
30.08.2015 04:36 14,4 C 95 % 1019,0 hPa 0,0 l/m 0,0 km/h (0 Bft) N 355 0 min 0 W/m 13,6 C 14,4 C 0,0 km/h (0 Bft)
30.08.2015 04:39 14,4 C 96 % 1019,1 hPa 0,0 l/m 0,1 km/h (0 Bft) N 355 0 min 0 W/m 13,8 C 14,4 C 1,6 km/h (1 Bft)
30.08.2015 04:42 14,5 C 96 % 1019,1 hPa 0,0 l/m 0,0 km/h (0 Bft) N 355 0 min 0 W/m 13,9 C 14,5 C 1,6 km/h (1 Bft)
30.08.2015 04:45 14,5 C 96 % 1019,1 hPa 0,0 l/m 0,2 km/h (0 Bft) N 355 0 min 0 W/m 13,9 C 14,5 C 1,6 km/h (1 Bft)
30.08.2015 04:48 14,6 C 96 % 1019,1 hPa 0,0 l/m 0,3 km/h (0 Bft) N 355 0 min 0 W/m 14,0 C 14,6 C 1,6 km/h (1 Bft)
30.08.2015 04:51 14,5 C 96 % 1019,1 hPa 0,0 l/m 0,3 km/h (0 Bft) N 355 0 min 0 W/m 13,9 C 14,5 C 3,2 km/h (1 Bft)
30.08.2015 04:54 14,6 C 96 % 1019,2 hPa 0,0 l/m 0,9 km/h (0 Bft) N 355 0 min 0 W/m 14,0 C 14,6 C 3,2 km/h (1 Bft)
30.08.2015 04:57 14,6 C 96 % 1019,2 hPa 0,0 l/m 0,4 km/h (0 Bft) N 355 0 min 0 W/m 14,0 C 14,6 C 1,6 km/h (1 Bft)
30.08.2015 05:00 14,7 C 96 % 1019,1 hPa 0,0 l/m 0,3 km/h (0 Bft) N 355 0 min 0 W/m 14,1 C 14,7 C 1,6 km/h (1 Bft)
30.08.2015 05:03 14,7 C 96 % 1019,1 hPa 0,0 l/m 0,2 km/h (0 Bft) N 355 0 min 0 W/m 14,1 C 14,7 C 1,6 km/h (1 Bft)
30.08.2015 05:06 14,7 C 96 % 1019,2 hPa 0,0 l/m 0,9 km/h (0 Bft) N 355 0 min 0 W/m 14,1 C 14,7 C 3,2 km/h (1 Bft)
30.08.2015 05:09 14,7 C 96 % 1019,1 hPa 0,0 l/m 0,7 km/h (0 Bft) N 355 0 min 0 W/m 14,1 C 14,7 C 3,2 km/h (1 Bft)
30.08.2015 05:12 14,8 C 96 % 1019,0 hPa 0,0 l/m 0,4 km/h (0 Bft) N 355 0 min 0 W/m 14,2 C 14,8 C 1,6 km/h (1 Bft)
30.08.2015 05:15 14,8 C 96 % 1018,9 hPa 0,0 l/m 0,4 km/h (0 Bft) N 355 0 min 0 W/m 14,2 C 14,8 C 1,6 km/h (1 Bft)
30.08.2015 05:18 14,8 C 96 % 1018,9 hPa 0,0 l/m 0,4 km/h (0 Bft) N 355 0 min 0 W/m 14,2 C 14,8 C 1,6 km/h (1 Bft)
30.08.2015 05:21 14,8 C 96 % 1018,8 hPa 0,0 l/m 0,2 km/h (0 Bft) N 355 0 min 0 W/m 14,2 C 14,8 C 1,6 km/h (1 Bft)
30.08.2015 05:24 14,9 C 96 % 1018,8 hPa 0,0 l/m 1,0 km/h (0 Bft) N 355 0 min 0 W/m 14,3 C 14,9 C 3,2 km/h (1 Bft)
30.08.2015 05:27 14,9 C 96 % 1018,8 hPa 0,0 l/m 0,4 km/h (0 Bft) N 355 0 min 0 W/m 14,3 C 14,9 C 1,6 km/h (1 Bft)
30.08.2015 05:30 15,1 C 96 % 1019,1 hPa 0,0 l/m 0,4 km/h (0 Bft) N 355 0 min 0 W/m 14,5 C 15,1 C 1,6 km/h (1 Bft)
30.08.2015 05:33 15,2 C 96 % 1019,2 hPa 0,0 l/m 0,3 km/h (0 Bft) N 355 0 min 0 W/m 14,6 C 15,2 C 1,6 km/h (1 Bft)
30.08.2015 05:36 15,2 C 96 % 1019,0 hPa 0,0 l/m 0,8 km/h (0 Bft) N 355 0 min 0 W/m 14,6 C 15,2 C 3,2 km/h (1 Bft)
30.08.2015 05:39 15,3 C 96 % 1019,0 hPa 0,0 l/m 0,3 km/h (0 Bft) N 355 0 min 0 W/m 14,7 C 15,3 C 1,6 km/h (1 Bft)
30.08.2015 05:42 15,3 C 96 % 1019,1 hPa 0,0 l/m 0,7 km/h (0 Bft) N 355 0 min 0 W/m 14,7 C 15,3 C 3,2 km/h (1 Bft)
30.08.2015 05:45 15,3 C 95 % 1019,3 hPa 0,0 l/m 0,6 km/h (0 Bft) N 355 0 min 0 W/m 14,5 C 15,3 C 1,6 km/h (1 Bft)
30.08.2015 05:48 15,4 C 95 % 1019,3 hPa 0,0 l/m 0,6 km/h (0 Bft) N 355 0 min 0 W/m 14,6 C 15,4 C 1,6 km/h (1 Bft)
30.08.2015 05:51 15,4 C 95 % 1019,1 hPa 0,0 l/m 1,4 km/h (1 Bft) N 355 0 min 0 W/m 14,6 C 15,4 C 3,2 km/h (1 Bft)
30.08.2015 05:54 15,4 C 95 % 1019,1 hPa 0,0 l/m 0,9 km/h (0 Bft) N 5 0 min 0 W/m 14,6 C 15,4 C 3,2 km/h (1 Bft)
30.08.2015 05:57 15,4 C 95 % 1019,2 hPa 0,0 l/m 0,5 km/h (0 Bft) N 5 0 min 0 W/m 14,6 C 15,4 C 1,6 km/h (1 Bft)
30.08.2015 06:00 15,4 C 95 % 1019,0 hPa 0,0 l/m 1,1 km/h (1 Bft) N 5 0 min 0 W/m 14,6 C 15,4 C 3,2 km/h (1 Bft)
30.08.2015 06:03 15,3 C 95 % 1018,9 hPa 0,0 l/m 1,4 km/h (1 Bft) N 5 0 min 0 W/m 14,5 C 15,3 C 3,2 km/h (1 Bft)
30.08.2015 06:06 15,3 C 95 % 1019,1 hPa 0,0 l/m 1,5 km/h (1 Bft) N 5 0 min 0 W/m 14,5 C 15,3 C 3,2 km/h (1 Bft)
30.08.2015 06:09 15,3 C 95 % 1019,1 hPa 0,0 l/m 0,9 km/h (0 Bft) N 5 0 min 0 W/m 14,5 C 15,3 C 3,2 km/h (1 Bft)
30.08.2015 06:12 15,3 C 95 % 1019,3 hPa 0,0 l/m 0,8 km/h (0 Bft) N 360 0 min 0 W/m 14,5 C 15,3 C 4,8 km/h (1 Bft)
30.08.2015 06:15 15,3 C 95 % 1019,2 hPa 0,0 l/m 0,6 km/h (0 Bft) N 5 0 min 0 W/m 14,5 C 15,3 C 1,6 km/h (1 Bft)
30.08.2015 06:18 15,3 C 94 % 1019,0 hPa 0,0 l/m 1,3 km/h (1 Bft) N 5 0 min 0 W/m 14,3 C 15,3 C 3,2 km/h (1 Bft)
30.08.2015 06:21 15,3 C 94 % 1018,9 hPa 0,0 l/m 1,2 km/h (1 Bft) O 97 0 min 0 W/m 14,3 C 15,3 C 4,8 km/h (1 Bft)
30.08.2015 06:24 15,4 C 93 % 1019,0 hPa 0,0 l/m 0,6 km/h (0 Bft) O 83 0 min 0 W/m 14,3 C 15,4 C 3,2 km/h (1 Bft)
30.08.2015 06:27 15,4 C 93 % 1019,1 hPa 0,0 l/m 1,4 km/h (1 Bft) O-NO 63 0 min 0 W/m 14,3 C 15,4 C 3,2 km/h (1 Bft)
30.08.2015 06:30 15,3 C 93 % 1019,2 hPa 0,0 l/m 0,3 km/h (0 Bft) O-NO 63 0 min 0 W/m 14,2 C 15,3 C 1,6 km/h (1 Bft)
30.08.2015 06:33 15,3 C 93 % 1019,2 hPa 0,0 l/m 0,6 km/h (0 Bft) O-NO 63 0 min 0 W/m 14,2 C 15,3 C 1,6 km/h (1 Bft)
30.08.2015 06:36 15,3 C 93 % 1019,2 hPa 0,0 l/m 0,3 km/h (0 Bft) O-NO 63 0 min 0 W/m 14,2 C 15,3 C 1,6 km/h (1 Bft)
30.08.2015 06:39 15,3 C 93 % 1019,1 hPa 0,0 l/m 0,6 km/h (0 Bft) O-NO 63 0 min 0 W/m 14,2 C 15,3 C 3,2 km/h (1 Bft)
30.08.2015 06:42 15,2 C 93 % 1019,0 hPa 0,0 l/m 0,4 km/h (0 Bft) O-NO 63 0 min 0 W/m 14,1 C 15,2 C 1,6 km/h (1 Bft)
30.08.2015 06:45 15,2 C 93 % 1019,1 hPa 0,0 l/m 0,9 km/h (0 Bft) O-NO 63 0 min 5 W/m 14,1 C 15,2 C 3,2 km/h (1 Bft)
30.08.2015 06:48 15,2 C 93 % 1019,0 hPa 0,0 l/m 1,3 km/h (1 Bft) O-NO 62 0 min 5 W/m 14,1 C 15,2 C 3,2 km/h (1 Bft)
30.08.2015 06:51 15,2 C 93 % 1018,9 hPa 0,0 l/m 0,9 km/h (0 Bft) O-NO 62 0 min 7 W/m 14,1 C 15,2 C 1,6 km/h (1 Bft)
30.08.2015 06:54 15,2 C 94 % 1018,7 hPa 0,0 l/m 0,3 km/h (0 Bft) O-NO 62 0 min 9 W/m 14,2 C 15,2 C 3,2 km/h (1 Bft)
30.08.2015 06:57 15,2 C 94 % 1018,7 hPa 0,0 l/m 0,7 km/h (0 Bft) O-NO 62 0 min 9 W/m 14,2 C 15,2 C 3,2 km/h (1 Bft)
30.08.2015 07:00 15,2 C 93 % 1018,8 hPa 0,0 l/m 0,9 km/h (0 Bft) O-NO 62 0 min 9 W/m 14,1 C 15,2 C 3,2 km/h (1 Bft)
30.08.2015 07:03 15,3 C 92 % 1019,0 hPa 0,0 l/m 1,0 km/h (0 Bft) O-NO 62 0 min 9 W/m 14,0 C 15,3 C 3,2 km/h (1 Bft)
30.08.2015 07:06 15,3 C 91 % 1018,9 hPa 0,0 l/m 0,5 km/h (0 Bft) O-NO 62 0 min 9 W/m 13,8 C 15,3 C 3,2 km/h (1 Bft)
30.08.2015 07:09 15,3 C 92 % 1018,8 hPa 0,0 l/m 0,5 km/h (0 Bft) O-NO 62 0 min 11 W/m 14,0 C 15,3 C 1,6 km/h (1 Bft)
30.08.2015 07:12 15,2 C 91 % 1018,8 hPa 0,0 l/m 0,9 km/h (0 Bft) O-NO 62 0 min 11 W/m 13,7 C 15,2 C 3,2 km/h (1 Bft)
30.08.2015 07:15 15,1 C 91 % 1018,9 hPa 0,0 l/m 0,7 km/h (0 Bft) O-NO 62 0 min 14 W/m 13,6 C 15,1 C 1,6 km/h (1 Bft)
30.08.2015 07:18 15,0 C 92 % 1018,9 hPa 0,0 l/m 0,2 km/h (0 Bft) O-NO 62 0 min 21 W/m 13,7 C 15,0 C 1,6 km/h (1 Bft)
30.08.2015 07:21 14,9 C 92 % 1018,9 hPa 0,0 l/m 0,1 km/h (0 Bft) O-NO 62 0 min 25 W/m 13,6 C 14,9 C 1,6 km/h (1 Bft)
30.08.2015 07:24 15,0 C 92 % 1018,9 hPa 0,0 l/m 0,2 km/h (0 Bft) O-NO 62 0 min 25 W/m 13,7 C 15,0 C 1,6 km/h (1 Bft)
30.08.2015 07:27 15,0 C 92 % 1018,9 hPa 0,0 l/m 0,5 km/h (0 Bft) O-NO 62 0 min 28 W/m 13,7 C 15,0 C 1,6 km/h (1 Bft)
30.08.2015 07:30 15,1 C 92 % 1019,1 hPa 0,0 l/m 0,7 km/h (0 Bft) O-NO 62 0 min 28 W/m 13,8 C 15,1 C 1,6 km/h (1 Bft)
30.08.2015 07:33 15,1 C 92 % 1019,2 hPa 0,0 l/m 0,7 km/h (0 Bft) O-NO 62 0 min 33 W/m 13,8 C 15,1 C 1,6 km/h (1 Bft)
30.08.2015 07:36 15,1 C 92 % 1019,2 hPa 0,0 l/m 0,5 km/h (0 Bft) O-NO 62 0 min 44 W/m 13,8 C 15,1 C 1,6 km/h (1 Bft)
30.08.2015 07:39 15,2 C 92 % 1019,3 hPa 0,0 l/m 0,1 km/h (0 Bft) O-NO 62 0 min 53 W/m 13,9 C 15,2 C 1,6 km/h (1 Bft)
30.08.2015 07:42 15,3 C 92 % 1019,3 hPa 0,0 l/m 0,0 km/h (0 Bft) O-NO 62 0 min 56 W/m 14,0 C 15,3 C 1,6 km/h (1 Bft)
30.08.2015 07:45 15,4 C 91 % 1019,4 hPa 0,0 l/m 0,2 km/h (0 Bft) O-NO 62 0 min 46 W/m 13,9 C 15,4 C 1,6 km/h (1 Bft)
30.08.2015 07:48 15,5 C 91 % 1019,4 hPa 0,0 l/m 0,3 km/h (0 Bft) O-NO 62 0 min 42 W/m 14,0 C 15,5 C 1,6 km/h (1 Bft)
30.08.2015 07:51 15,7 C 91 % 1019,3 hPa 0,0 l/m 0,7 km/h (0 Bft) O-NO 62 0 min 37 W/m 14,2 C 15,7 C 3,2 km/h (1 Bft)
30.08.2015 07:54 15,7 C 91 % 1019,3 hPa 0,0 l/m 1,0 km/h (0 Bft) O-NO 65 0 min 33 W/m 14,2 C 15,7 C 3,2 km/h (1 Bft)
30.08.2015 07:57 15,7 C 91 % 1019,5 hPa 0,0 l/m 0,4 km/h (0 Bft) O-NO 65 0 min 33 W/m 14,2 C 15,7 C 1,6 km/h (1 Bft)
30.08.2015 08:00 15,6 C 91 % 1019,4 hPa 0,0 l/m 0,5 km/h (0 Bft) O-NO 65 0 min 33 W/m 14,1 C 15,6 C 1,6 km/h (1 Bft)
30.08.2015 08:03 15,6 C 91 % 1019,3 hPa 0,0 l/m 0,2 km/h (0 Bft) O-NO 65 0 min 33 W/m 14,1 C 15,6 C 1,6 km/h (1 Bft)
30.08.2015 08:06 15,5 C 92 % 1019,3 hPa 0,0 l/m 0,1 km/h (0 Bft) O-NO 65 0 min 33 W/m 14,2 C 15,5 C 1,6 km/h (1 Bft)
30.08.2015 08:09 15,4 C 92 % 1019,4 hPa 0,0 l/m 0,9 km/h (0 Bft) O-NO 65 0 min 35 W/m 14,1 C 15,4 C 3,2 km/h (1 Bft)
30.08.2015 08:12 15,3 C 92 % 1019,4 hPa 0,0 l/m 0,6 km/h (0 Bft) O-NO 65 0 min 39 W/m 14,0 C 15,3 C 1,6 km/h (1 Bft)
30.08.2015 08:15 15,3 C 92 % 1019,4 hPa 0,0 l/m 0,6 km/h (0 Bft) O-NO 65 0 min 40 W/m 14,0 C 15,3 C 3,2 km/h (1 Bft)
30.08.2015 08:18 15,3 C 92 % 1019,5 hPa 0,0 l/m 1,1 km/h (1 Bft) O-NO 65 0 min 44 W/m 14,0 C 15,3 C 3,2 km/h (1 Bft)
30.08.2015 08:21 15,3 C 93 % 1019,5 hPa 0,0 l/m 1,0 km/h (0 Bft) O-NO 65 0 min 53 W/m 14,2 C 15,3 C 3,2 km/h (1 Bft)
30.08.2015 08:24 15,4 C 93 % 1019,5 hPa 0,0 l/m 0,2 km/h (0 Bft) O-NO 65 0 min 60 W/m 14,3 C 15,4 C 1,6 km/h (1 Bft)
30.08.2015 08:27 15,4 C 93 % 1019,4 hPa 0,0 l/m 0,8 km/h (0 Bft) O-NO 65 0 min 70 W/m 14,3 C 15,4 C 3,2 km/h (1 Bft)
30.08.2015 08:30 15,5 C 93 % 1019,4 hPa 0,0 l/m 0,7 km/h (0 Bft) O-NO 65 0 min 69 W/m 14,4 C 15,5 C 3,2 km/h (1 Bft)
30.08.2015 08:33 15,6 C 92 % 1019,4 hPa 0,0 l/m 0,6 km/h (0 Bft) O-NO 65 0 min 63 W/m 14,3 C 15,6 C 3,2 km/h (1 Bft)
30.08.2015 08:36 15,7 C 92 % 1019,4 hPa 0,0 l/m 1,2 km/h (1 Bft) O-NO 65 0 min 58 W/m 14,4 C 15,7 C 3,2 km/h (1 Bft)
30.08.2015 08:39 15,7 C 92 % 1019,3 hPa 0,0 l/m 1,7 km/h (1 Bft) O-NO 65 0 min 58 W/m 14,4 C 15,7 C 3,2 km/h (1 Bft)
30.08.2015 08:42 15,7 C 92 % 1019,2 hPa 0,0 l/m 0,5 km/h (0 Bft) O-NO 65 0 min 83 W/m 14,4 C 15,7 C 3,2 km/h (1 Bft)
30.08.2015 08:45 15,8 C 92 % 1019,1 hPa 0,0 l/m 0,9 km/h (0 Bft) O-SO 115 0 min 77 W/m 14,5 C 15,8 C 4,8 km/h (1 Bft)
30.08.2015 08:48 15,9 C 92 % 1019,0 hPa 0,0 l/m 0,5 km/h (0 Bft) O-SO 115 0 min 70 W/m 14,6 C 15,9 C 1,6 km/h (1 Bft)
30.08.2015 08:51 16,1 C 91 % 1019,0 hPa 0,0 l/m 1,3 km/h (1 Bft) O-SO 115 0 min 81 W/m 14,6 C 16,1 C 4,8 km/h (1 Bft)
30.08.2015 08:54 16,2 C 91 % 1019,0 hPa 0,0 l/m 1,0 km/h (0 Bft) O 83 0 min 93 W/m 14,7 C 16,2 C 4,8 km/h (1 Bft)
30.08.2015 08:57 16,3 C 90 % 1018,8 hPa 0,0 l/m 1,1 km/h (1 Bft) O-NO 78 0 min 91 W/m 14,7 C 16,3 C 3,2 km/h (1 Bft)
30.08.2015 09:00 16,4 C 89 % 1018,8 hPa 0,0 l/m 1,3 km/h (1 Bft) O 83 0 min 88 W/m 14,6 C 16,4 C 6,4 km/h (2 Bft)
30.08.2015 09:03 16,4 C 89 % 1018,8 hPa 0,0 l/m 1,9 km/h (1 Bft) O-NO 57 0 min 98 W/m 14,6 C 16,4 C 3,2 km/h (1 Bft)
30.08.2015 09:06 16,6 C 86 % 1018,9 hPa 0,0 l/m 0,8 km/h (0 Bft) O-NO 58 0 min 105 W/m 14,2 C 16,6 C 3,2 km/h (1 Bft)
30.08.2015 09:09 16,8 C 85 % 1018,9 hPa 0,0 l/m 1,0 km/h (0 Bft) O-NO 57 0 min 95 W/m 14,3 C 16,8 C 3,2 km/h (1 Bft)
30.08.2015 09:12 17,2 C 85 % 1018,9 hPa 0,0 l/m 1,6 km/h (1 Bft) O-SO 110 0 min 98 W/m 14,7 C 17,2 C 4,8 km/h (1 Bft)
30.08.2015 09:15 17,3 C 82 % 1018,9 hPa 0,0 l/m 1,7 km/h (1 Bft) N-NO 20 0 min 104 W/m 14,2 C 17,3 C 4,8 km/h (1 Bft)
30.08.2015 09:18 17,4 C 81 % 1019,0 hPa 0,0 l/m 2,3 km/h (1 Bft) NO 41 3 min 288 W/m 14,1 C 17,4 C 6,4 km/h (2 Bft)
30.08.2015 09:21 17,7 C 80 % 1018,9 hPa 0,0 l/m 3,4 km/h (1 Bft) NO 52 3 min 309 W/m 14,2 C 17,7 C 6,4 km/h (2 Bft)
30.08.2015 09:24 17,7 C 80 % 1018,9 hPa 0,0 l/m 2,0 km/h (1 Bft) O 80 3 min 315 W/m 14,2 C 17,7 C 4,8 km/h (1 Bft)
30.08.2015 09:27 17,9 C 81 % 1018,9 hPa 0,0 l/m 1,8 km/h (1 Bft) O 92 0 min 186 W/m 14,6 C 17,9 C 3,2 km/h (1 Bft)
30.08.2015 09:30 17,8 C 80 % 1018,9 hPa 0,0 l/m 1,2 km/h (1 Bft) S-SO 156 3 min 323 W/m 14,3 C 17,8 C 3,2 km/h (1 Bft)
30.08.2015 09:33 18,0 C 77 % 1018,8 hPa 0,0 l/m 4,1 km/h (1 Bft) N-NO 24 3 min 304 W/m 13,9 C 18,0 C 9,7 km/h (2 Bft)
30.08.2015 09:36 18,1 C 76 % 1018,8 hPa 0,0 l/m 4,2 km/h (1 Bft) NO 44 0 min 156 W/m 13,8 C 18,1 C 6,4 km/h (2 Bft)
30.08.2015 09:39 18,1 C 74 % 1018,8 hPa 0,0 l/m 3,6 km/h (1 Bft) N-NO 15 0 min 155 W/m 13,4 C 18,1 C 9,7 km/h (2 Bft)
30.08.2015 09:42 18,1 C 74 % 1018,7 hPa 0,0 l/m 2,1 km/h (1 Bft) NW 318 0 min 149 W/m 13,4 C 18,1 C 4,8 km/h (1 Bft)
30.08.2015 09:45 18,2 C 77 % 1018,6 hPa 0,0 l/m 1,6 km/h (1 Bft) O-NO 63 3 min 388 W/m 14,1 C 18,2 C 3,2 km/h (1 Bft)
30.08.2015 09:48 18,3 C 79 % 1018,5 hPa 0,0 l/m 1,4 km/h (1 Bft) S-SO 160 3 min 394 W/m 14,6 C 18,3 C 3,2 km/h (1 Bft)
30.08.2015 09:51 18,4 C 75 % 1018,4 hPa 0,0 l/m 4,2 km/h (1 Bft) NO 35 3 min 378 W/m 13,9 C 18,4 C 8,0 km/h (2 Bft)
30.08.2015 09:54 18,6 C 75 % 1018,2 hPa 0,0 l/m 3,9 km/h (1 Bft) S-SW 192 3 min 380 W/m 14,1 C 18,6 C 11,3 km/h (2 Bft)
30.08.2015 09:57 18,7 C 73 % 1018,3 hPa 0,0 l/m 6,2 km/h (2 Bft) O 84 3 min 383 W/m 13,8 C 18,7 C 12,9 km/h (3 Bft)
30.08.2015 10:00 18,9 C 76 % 1018,4 hPa 0,0 l/m 1,6 km/h (1 Bft) S 188 3 min 425 W/m 14,6 C 18,9 C 8,0 km/h (2 Bft)
30.08.2015 10:03 19,1 C 76 % 1018,4 hPa 0,0 l/m 2,0 km/h (1 Bft) O-NO 61 3 min 436 W/m 14,8 C 19,1 C 6,4 km/h (2 Bft)
30.08.2015 10:06 18,9 C 76 % 1018,5 hPa 0,0 l/m 2,4 km/h (1 Bft) O-NO 59 3 min 469 W/m 14,6 C 18,9 C 4,8 km/h (1 Bft)
30.08.2015 10:09 19,2 C 72 % 1018,6 hPa 0,0 l/m 3,2 km/h (1 Bft) O-NO 60 0 min 244 W/m 14,0 C 19,2 C 8,0 km/h (2 Bft)
30.08.2015 10:12 19,2 C 75 % 1018,6 hPa 0,0 l/m 3,3 km/h (1 Bft) N-NO 27 0 min 255 W/m 14,7 C 19,2 C 8,0 km/h (2 Bft)
30.08.2015 10:15 19,2 C 72 % 1018,7 hPa 0,0 l/m 2,8 km/h (1 Bft) N 355 0 min 163 W/m 14,0 C 19,2 C 6,4 km/h (2 Bft)
30.08.2015 10:18 19,2 C 72 % 1018,7 hPa 0,0 l/m 2,8 km/h (1 Bft) NO 53 3 min 427 W/m 14,0 C 19,2 C 6,4 km/h (2 Bft)
30.08.2015 10:21 19,2 C 71 % 1018,7 hPa 0,0 l/m 3,9 km/h (1 Bft) N 355 3 min 427 W/m 13,8 C 19,2 C 9,7 km/h (2 Bft)
30.08.2015 10:24 19,2 C 71 % 1018,8 hPa 0,0 l/m 3,4 km/h (1 Bft) NW 314 3 min 503 W/m 13,8 C 19,2 C 9,7 km/h (2 Bft)
30.08.2015 10:27 19,5 C 74 % 1018,8 hPa 0,0 l/m 2,8 km/h (1 Bft) O-NO 78 0 min 258 W/m 14,7 C 19,5 C 8,0 km/h (2 Bft)
30.08.2015 10:30 19,6 C 76 % 1018,7 hPa 0,0 l/m 2,3 km/h (1 Bft) O-NO 60 3 min 378 W/m 15,2 C 19,6 C 6,4 km/h (2 Bft)
30.08.2015 10:33 19,6 C 75 % 1018,7 hPa 0,0 l/m 3,5 km/h (1 Bft) N 355 0 min 257 W/m 15,0 C 19,6 C 9,7 km/h (2 Bft)
30.08.2015 10:36 19,5 C 74 % 1018,7 hPa 0,0 l/m 3,9 km/h (1 Bft) O 92 0 min 185 W/m 14,7 C 19,5 C 14,5 km/h (3 Bft)
30.08.2015 10:39 19,3 C 73 % 1018,7 hPa 0,0 l/m 3,8 km/h (1 Bft) NO 49 0 min 127 W/m 14,3 C 19,3 C 9,7 km/h (2 Bft)
30.08.2015 10:42 19,1 C 74 % 1018,7 hPa 0,0 l/m 2,3 km/h (1 Bft) SO 131 0 min 153 W/m 14,4 C 19,1 C 6,4 km/h (2 Bft)
30.08.2015 10:45 19,1 C 75 % 1018,8 hPa 0,0 l/m 5,2 km/h (1 Bft) O-NO 69 0 min 220 W/m 14,6 C 19,1 C 11,3 km/h (2 Bft)
30.08.2015 10:48 19,0 C 72 % 1018,7 hPa 0,0 l/m 4,7 km/h (1 Bft) O-SO 102 0 min 178 W/m 13,8 C 19,0 C 12,9 km/h (3 Bft)
30.08.2015 10:51 18,9 C 76 % 1018,6 hPa 0,0 l/m 2,7 km/h (1 Bft) SO 129 0 min 142 W/m 14,6 C 18,9 C 8,0 km/h (2 Bft)
30.08.2015 10:54 18,8 C 74 % 1018,6 hPa 0,0 l/m 3,7 km/h (1 Bft) O-NO 59 0 min 193 W/m 14,1 C 18,8 C 8,0 km/h (2 Bft)
30.08.2015 10:57 18,8 C 74 % 1018,5 hPa 0,0 l/m 2,0 km/h (1 Bft) N-NO 13 0 min 185 W/m 14,1 C 18,8 C 11,3 km/h (2 Bft)
30.08.2015 11:00 18,8 C 75 % 1018,5 hPa 0,0 l/m 2,8 km/h (1 Bft) NO 45 0 min 128 W/m 14,3 C 18,8 C 6,4 km/h (2 Bft)
30.08.2015 11:03 18,8 C 77 % 1018,4 hPa 0,0 l/m 2,9 km/h (1 Bft) O-NO 62 0 min 118 W/m 14,7 C 18,8 C 8,0 km/h (2 Bft)
30.08.2015 11:06 18,7 C 80 % 1018,3 hPa 0,0 l/m 2,3 km/h (1 Bft) NO 44 0 min 148 W/m 15,2 C 18,7 C 4,8 km/h (1 Bft)
30.08.2015 11:09 18,7 C 79 % 1018,3 hPa 0,0 l/m 2,3 km/h (1 Bft) O 81 0 min 163 W/m 15,0 C 18,7 C 6,4 km/h (2 Bft)
30.08.2015 11:12 18,8 C 80 % 1018,2 hPa 0,0 l/m 2,8 km/h (1 Bft) N-NO 14 0 min 213 W/m 15,3 C 18,8 C 6,4 km/h (2 Bft)
30.08.2015 11:15 18,8 C 81 % 1018,3 hPa 0,0 l/m 3,3 km/h (1 Bft) NO 35 0 min 227 W/m 15,5 C 18,8 C 6,4 km/h (2 Bft)
30.08.2015 11:18 18,9 C 80 % 1018,3 hPa 0,0 l/m 3,0 km/h (1 Bft) NO 47 0 min 181 W/m 15,4 C 18,9 C 8,0 km/h (2 Bft)
30.08.2015 11:21 19,0 C 80 % 1018,4 hPa 0,0 l/m 1,8 km/h (1 Bft) NO 55 0 min 155 W/m 15,5 C 19,0 C 6,4 km/h (2 Bft)
30.08.2015 11:24 18,9 C 82 % 1018,3 hPa 0,0 l/m 2,1 km/h (1 Bft) O-NO 63 0 min 188 W/m 15,8 C 18,9 C 6,4 km/h (2 Bft)
30.08.2015 11:27 19,2 C 81 % 1018,2 hPa 0,0 l/m 1,8 km/h (1 Bft) N-NO 18 0 min 316 W/m 15,9 C 19,2 C 4,8 km/h (1 Bft)
30.08.2015 11:30 19,8 C 79 % 1018,3 hPa 0,0 l/m 3,3 km/h (1 Bft) N-NW 335 3 min 554 W/m 16,0 C 19,8 C 9,7 km/h (2 Bft)
30.08.2015 11:33 20,3 C 77 % 1018,3 hPa 0,0 l/m 3,5 km/h (1 Bft) N-NW 337 3 min 575 W/m 16,1 C 20,3 C 8,0 km/h (2 Bft)
30.08.2015 11:36 20,7 C 74 % 1018,3 hPa 0,0 l/m 3,2 km/h (1 Bft) NO 40 0 min 272 W/m 15,9 C 20,7 C 6,4 km/h (2 Bft)
30.08.2015 11:39 20,6 C 70 % 1018,2 hPa 0,0 l/m 4,5 km/h (1 Bft) O-NO 59 3 min 373 W/m 14,9 C 20,6 C 8,0 km/h (2 Bft)
30.08.2015 11:42 20,6 C 73 % 1018,2 hPa 0,0 l/m 4,1 km/h (1 Bft) N-NO 25 3 min 388 W/m 15,6 C 20,6 C 11,3 km/h (2 Bft)
30.08.2015 11:45 20,6 C 75 % 1018,3 hPa 0,0 l/m 2,5 km/h (1 Bft) N-NO 33 3 min 404 W/m 16,0 C 20,6 C 6,4 km/h (2 Bft)
30.08.2015 11:48 20,6 C 74 % 1018,4 hPa 0,0 l/m 2,7 km/h (1 Bft) NO 41 3 min 401 W/m 15,8 C 20,6 C 8,0 km/h (2 Bft)
30.08.2015 11:51 20,8 C 72 % 1018,4 hPa 0,0 l/m 3,5 km/h (1 Bft) O-NO 65 3 min 615 W/m 15,6 C 20,8 C 8,0 km/h (2 Bft)
30.08.2015 11:54 20,9 C 72 % 1018,5 hPa 0,0 l/m 5,0 km/h (1 Bft) O 91 3 min 613 W/m 15,7 C 20,9 C 14,5 km/h (3 Bft)
30.08.2015 11:57 21,1 C 70 % 1018,5 hPa 0,0 l/m 3,2 km/h (1 Bft) N-NW 340 0 min 323 W/m 15,4 C 21,1 C 8,0 km/h (2 Bft)
30.08.2015 12:00 21,1 C 74 % 1018,5 hPa 0,0 l/m 2,2 km/h (1 Bft) N 355 0 min 323 W/m 16,3 C 21,1 C 4,8 km/h (1 Bft)
30.08.2015 12:03 21,2 C 72 % 1018,5 hPa 0,0 l/m 3,1 km/h (1 Bft) N 355 3 min 656 W/m 15,9 C 21,2 C 8,0 km/h (2 Bft)
30.08.2015 12:06 21,6 C 74 % 1018,6 hPa 0,0 l/m 3,3 km/h (1 Bft) NO 46 3 min 689 W/m 16,8 C 21,6 C 9,7 km/h (2 Bft)
30.08.2015 12:09 21,9 C 68 % 1018,8 hPa 0,0 l/m 3,8 km/h (1 Bft) N-NW 329 3 min 661 W/m 15,7 C 21,9 C 8,0 km/h (2 Bft)
30.08.2015 12:12 21,7 C 68 % 1018,9 hPa 0,0 l/m 4,1 km/h (1 Bft) S-SW 211 0 min 236 W/m 15,5 C 21,7 C 9,7 km/h (2 Bft)
30.08.2015 12:15 21,3 C 68 % 1018,9 hPa 0,0 l/m 3,5 km/h (1 Bft) SO 146 0 min 156 W/m 15,1 C 21,3 C 12,9 km/h (3 Bft)
30.08.2015 12:18 20,9 C 70 % 1018,9 hPa 0,0 l/m 2,4 km/h (1 Bft) O-NO 59 0 min 163 W/m 15,2 C 20,9 C 4,8 km/h (1 Bft)
30.08.2015 12:21 20,6 C 72 % 1018,8 hPa 0,0 l/m 2,7 km/h (1 Bft) O-SO 114 0 min 176 W/m 15,4 C 20,6 C 6,4 km/h (2 Bft)
30.08.2015 12:24 20,4 C 73 % 1018,8 hPa 0,0 l/m 4,2 km/h (1 Bft) O 84 0 min 181 W/m 15,4 C 20,4 C 9,7 km/h (2 Bft)
30.08.2015 12:27 20,3 C 73 % 1018,7 hPa 0,0 l/m 2,5 km/h (1 Bft) NO 38 0 min 178 W/m 15,3 C 20,3 C 6,4 km/h (2 Bft)
30.08.2015 12:30 20,3 C 75 % 1018,7 hPa 0,0 l/m 1,6 km/h (1 Bft) N-NO 32 0 min 220 W/m 15,7 C 20,3 C 4,8 km/h (1 Bft)
30.08.2015 12:33 20,4 C 75 % 1018,7 hPa 0,0 l/m 4,0 km/h (1 Bft) N-NO 24 3 min 381 W/m 15,8 C 20,4 C 8,0 km/h (2 Bft)
30.08.2015 12:36 20,8 C 74 % 1018,7 hPa 0,0 l/m 2,7 km/h (1 Bft) O-NO 61 3 min 459 W/m 16,0 C 20,8 C 4,8 km/h (1 Bft)
30.08.2015 12:39 21,2 C 73 % 1018,7 hPa 0,0 l/m 3,3 km/h (1 Bft) O-NO 61 3 min 403 W/m 16,2 C 21,2 C 9,7 km/h (2 Bft)
30.08.2015 12:42 21,4 C 72 % 1018,7 hPa 0,0 l/m 3,2 km/h (1 Bft) NO 39 3 min 390 W/m 16,1 C 21,4 C 8,0 km/h (2 Bft)
30.08.2015 12:45 21,5 C 73 % 1018,7 hPa 0,0 l/m 3,1 km/h (1 Bft) N-NW 329 0 min 309 W/m 16,4 C 21,5 C 6,4 km/h (2 Bft)
30.08.2015 12:48 21,6 C 68 % 1018,6 hPa 0,0 l/m 3,2 km/h (1 Bft) N 350 3 min 390 W/m 15,4 C 21,6 C 6,4 km/h (2 Bft)
30.08.2015 12:51 21,9 C 73 % 1018,6 hPa 0,0 l/m 3,8 km/h (1 Bft) N-NO 20 3 min 659 W/m 16,8 C 21,9 C 11,3 km/h (2 Bft)
30.08.2015 12:54 22,2 C 68 % 1018,5 hPa 0,0 l/m 4,1 km/h (1 Bft) W 265 3 min 712 W/m 16,0 C 22,2 C 8,0 km/h (2 Bft)
30.08.2015 12:57 22,6 C 68 % 1018,5 hPa 0,0 l/m 3,2 km/h (1 Bft) N-NW 341 3 min 731 W/m 16,4 C 22,6 C 9,7 km/h (2 Bft)
30.08.2015 13:00 22,8 C 68 % 1018,5 hPa 0,0 l/m 4,9 km/h (1 Bft) W-NW 300 3 min 547 W/m 16,6 C 22,8 C 12,9 km/h (3 Bft)
30.08.2015 13:03 22,8 C 67 % 1018,5 hPa 0,0 l/m 4,6 km/h (1 Bft) NO 42 3 min 390 W/m 16,3 C 22,8 C 9,7 km/h (2 Bft)
30.08.2015 13:06 22,6 C 68 % 1018,4 hPa 0,0 l/m 4,3 km/h (1 Bft) NW 318 0 min 364 W/m 16,4 C 22,6 C 8,0 km/h (2 Bft)
30.08.2015 13:09 22,6 C 68 % 1018,2 hPa 0,0 l/m 4,4 km/h (1 Bft) NW 314 0 min 364 W/m 16,4 C 22,6 C 11,3 km/h (2 Bft)
30.08.2015 13:12 22,8 C 71 % 1018,2 hPa 0,0 l/m 4,3 km/h (1 Bft) N 5 3 min 696 W/m 17,3 C 22,8 C 11,3 km/h (2 Bft)
30.08.2015 13:15 23,0 C 67 % 1018,1 hPa 0,0 l/m 5,2 km/h (1 Bft) NW 317 3 min 629 W/m 16,5 C 23,0 C 12,9 km/h (3 Bft)
30.08.2015 13:18 23,1 C 67 % 1018,1 hPa 0,0 l/m 3,1 km/h (1 Bft) N-NO 23 3 min 649 W/m 16,6 C 23,1 C 8,0 km/h (2 Bft)
30.08.2015 13:21 23,1 C 68 % 1018,0 hPa 0,0 l/m 4,6 km/h (1 Bft) W-NW 298 3 min 636 W/m 16,9 C 23,1 C 12,9 km/h (3 Bft)
30.08.2015 13:24 23,2 C 69 % 1018,0 hPa 0,0 l/m 5,9 km/h (2 Bft) N-NO 15 3 min 628 W/m 17,2 C 23,2 C 14,5 km/h (3 Bft)
30.08.2015 13:27 23,3 C 69 % 1018,0 hPa 0,0 l/m 4,5 km/h (1 Bft) N-NW 346 3 min 624 W/m 17,3 C 23,3 C 9,7 km/h (2 Bft)
30.08.2015 13:30 23,4 C 69 % 1017,9 hPa 0,0 l/m 5,5 km/h (2 Bft) N 355 3 min 643 W/m 17,4 C 23,4 C 16,1 km/h (3 Bft)
30.08.2015 13:33 23,4 C 69 % 1017,9 hPa 0,0 l/m 4,8 km/h (1 Bft) N 360 3 min 628 W/m 17,4 C 23,4 C 11,3 km/h (2 Bft)
30.08.2015 13:36 23,7 C 70 % 1017,9 hPa 0,0 l/m 4,1 km/h (1 Bft) N 360 3 min 619 W/m 17,9 C 23,7 C 9,7 km/h (2 Bft)
30.08.2015 13:39 23,7 C 69 % 1017,9 hPa 0,0 l/m 2,6 km/h (1 Bft) N 5 3 min 624 W/m 17,7 C 23,7 C 6,4 km/h (2 Bft)
30.08.2015 13:42 23,4 C 66 % 1017,9 hPa 0,0 l/m 3,8 km/h (1 Bft) N-NW 330 3 min 640 W/m 16,7 C 23,4 C 8,0 km/h (2 Bft)
30.08.2015 13:45 23,6 C 69 % 1017,9 hPa 0,0 l/m 4,0 km/h (1 Bft) NW 325 3 min 624 W/m 17,6 C 23,6 C 8,0 km/h (2 Bft)
30.08.2015 13:48 23,6 C 69 % 1017,8 hPa 0,0 l/m 4,9 km/h (1 Bft) N-NO 13 3 min 619 W/m 17,6 C 23,6 C 11,3 km/h (2 Bft)
30.08.2015 13:51 23,6 C 68 % 1017,8 hPa 0,0 l/m 7,3 km/h (2 Bft) N-NO 30 3 min 617 W/m 17,3 C 23,3 C 14,5 km/h (3 Bft)
30.08.2015 13:54 23,6 C 69 % 1017,8 hPa 0,0 l/m 4,5 km/h (1 Bft) N 355 3 min 621 W/m 17,6 C 23,6 C 8,0 km/h (2 Bft)
30.08.2015 13:57 23,7 C 69 % 1017,7 hPa 0,0 l/m 4,4 km/h (1 Bft) N-NO 27 3 min 617 W/m 17,7 C 23,7 C 14,5 km/h (3 Bft)
30.08.2015 14:00 23,7 C 68 % 1017,8 hPa 0,0 l/m 4,7 km/h (1 Bft) N 11 3 min 621 W/m 17,4 C 23,7 C 8,0 km/h (2 Bft)
30.08.2015 14:03 23,3 C 68 % 1017,8 hPa 0,0 l/m 6,2 km/h (2 Bft) N 351 3 min 598 W/m 17,1 C 23,3 C 14,5 km/h (3 Bft)
30.08.2015 14:06 23,1 C 70 % 1017,8 hPa 0,0 l/m 8,5 km/h (2 Bft) O-NO 64 3 min 626 W/m 17,3 C 22,5 C 16,1 km/h (3 Bft)
30.08.2015 14:09 23,0 C 69 % 1017,8 hPa 0,0 l/m 7,7 km/h (2 Bft) NW 316 3 min 638 W/m 17,0 C 22,6 C 16,1 km/h (3 Bft)
30.08.2015 14:12 22,9 C 70 % 1017,7 hPa 0,0 l/m 6,9 km/h (2 Bft) W 259 0 min 188 W/m 17,1 C 22,7 C 12,9 km/h (3 Bft)
30.08.2015 14:15 22,5 C 71 % 1017,6 hPa 0,0 l/m 6,8 km/h (2 Bft) N-NW 333 0 min 232 W/m 17,0 C 22,4 C 16,1 km/h (3 Bft)
30.08.2015 14:18 22,1 C 71 % 1017,7 hPa 0,0 l/m 6,1 km/h (2 Bft) N 10 0 min 250 W/m 16,6 C 22,1 C 14,5 km/h (3 Bft)
30.08.2015 14:21 21,8 C 74 % 1017,6 hPa 0,0 l/m 5,0 km/h (1 Bft) N-NO 28 0 min 287 W/m 17,0 C 21,8 C 11,3 km/h (2 Bft)
30.08.2015 14:24 21,8 C 74 % 1017,7 hPa 0,0 l/m 5,7 km/h (2 Bft) N 355 0 min 264 W/m 17,0 C 21,8 C 14,5 km/h (3 Bft)
30.08.2015 14:27 21,7 C 75 % 1017,6 hPa 0,0 l/m 5,0 km/h (1 Bft) N-NO 26 0 min 320 W/m 17,1 C 21,7 C 12,9 km/h (3 Bft)
30.08.2015 14:30 22,1 C 75 % 1017,5 hPa 0,0 l/m 7,3 km/h (2 Bft) W 278 3 min 779 W/m 17,5 C 21,8 C 14,5 km/h (3 Bft)
30.08.2015 14:33 22,6 C 73 % 1017,5 hPa 0,0 l/m 8,3 km/h (2 Bft) NO 42 3 min 805 W/m 17,5 C 22,0 C 19,3 km/h (3 Bft)
30.08.2015 14:36 22,8 C 71 % 1017,5 hPa 0,0 l/m 7,7 km/h (2 Bft) NO 45 0 min 315 W/m 17,3 C 22,4 C 16,1 km/h (3 Bft)
30.08.2015 14:39 22,4 C 72 % 1017,6 hPa 0,0 l/m 7,9 km/h (2 Bft) N-NW 336 0 min 330 W/m 17,1 C 21,9 C 16,1 km/h (3 Bft)
30.08.2015 14:42 22,3 C 73 % 1017,5 hPa 0,0 l/m 6,6 km/h (2 Bft) N 5 0 min 193 W/m 17,2 C 22,2 C 16,1 km/h (3 Bft)
30.08.2015 14:45 22,1 C 73 % 1017,4 hPa 0,0 l/m 8,7 km/h (2 Bft) N 355 3 min 369 W/m 17,0 C 21,3 C 14,5 km/h (3 Bft)
30.08.2015 14:48 22,3 C 73 % 1017,5 hPa 0,0 l/m 6,7 km/h (2 Bft) NO 45 3 min 445 W/m 17,2 C 22,2 C 16,1 km/h (3 Bft)
30.08.2015 14:51 22,4 C 72 % 1017,4 hPa 0,0 l/m 7,0 km/h (2 Bft) NW 317 0 min 299 W/m 17,1 C 22,2 C 14,5 km/h (3 Bft)
30.08.2015 14:54 22,4 C 72 % 1017,4 hPa 0,0 l/m 7,2 km/h (2 Bft) N 360 0 min 341 W/m 17,1 C 22,1 C 14,5 km/h (3 Bft)
30.08.2015 14:57 22,3 C 72 % 1017,3 hPa 0,0 l/m 6,1 km/h (2 Bft) N 5 3 min 394 W/m 17,0 C 22,3 C 14,5 km/h (3 Bft)
30.08.2015 15:00 22,2 C 73 % 1017,4 hPa 0,0 l/m 7,0 km/h (2 Bft) W-NW 294 3 min 531 W/m 17,1 C 22,0 C 14,5 km/h (3 Bft)
30.08.2015 15:03 22,8 C 73 % 1017,3 hPa 0,0 l/m 4,5 km/h (1 Bft) N 5 3 min 635 W/m 17,7 C 22,8 C 12,9 km/h (3 Bft)
30.08.2015 15:06 23,2 C 72 % 1017,3 hPa 0,0 l/m 5,5 km/h (2 Bft) W-NW 302 3 min 617 W/m 17,9 C 23,2 C 8,0 km/h (2 Bft)
30.08.2015 15:09 23,2 C 71 % 1017,3 hPa 0,0 l/m 5,6 km/h (2 Bft) N-NO 24 3 min 573 W/m 17,6 C 23,2 C 12,9 km/h (3 Bft)
30.08.2015 15:12 23,2 C 69 % 1017,2 hPa 0,0 l/m 4,8 km/h (1 Bft) W 275 3 min 466 W/m 17,2 C 23,2 C 11,3 km/h (2 Bft)
30.08.2015 15:15 23,1 C 71 % 1017,2 hPa 0,0 l/m 3,4 km/h (1 Bft) NW 325 0 min 278 W/m 17,5 C 23,1 C 11,3 km/h (2 Bft)
30.08.2015 15:18 22,9 C 73 % 1017,2 hPa 0,0 l/m 2,2 km/h (1 Bft) NW 326 0 min 274 W/m 17,8 C 22,9 C 4,8 km/h (1 Bft)
30.08.2015 15:21 22,8 C 71 % 1017,2 hPa 0,0 l/m 4,9 km/h (1 Bft) N-NO 15 0 min 297 W/m 17,3 C 22,8 C 12,9 km/h (3 Bft)
30.08.2015 15:24 22,6 C 72 % 1017,0 hPa 0,0 l/m 5,4 km/h (2 Bft) N-NW 339 0 min 287 W/m 17,3 C 22,6 C 11,3 km/h (2 Bft)
30.08.2015 15:27 22,7 C 73 % 1017,1 hPa 0,0 l/m 4,7 km/h (1 Bft) NW 306 0 min 330 W/m 17,6 C 22,7 C 11,3 km/h (2 Bft)
30.08.2015 15:30 22,7 C 75 % 1017,0 hPa 0,0 l/m 3,6 km/h (1 Bft) N-NO 28 0 min 265 W/m 18,0 C 22,7 C 8,0 km/h (2 Bft)
30.08.2015 15:33 22,4 C 73 % 1017,0 hPa 0,0 l/m 5,0 km/h (1 Bft) NO 34 0 min 230 W/m 17,3 C 22,4 C 9,7 km/h (2 Bft)
30.08.2015 15:36 22,3 C 75 % 1017,0 hPa 0,0 l/m 5,6 km/h (2 Bft) N-NO 12 0 min 227 W/m 17,6 C 22,3 C 12,9 km/h (3 Bft)
30.08.2015 15:39 22,2 C 76 % 1017,0 hPa 0,0 l/m 3,9 km/h (1 Bft) NO 44 0 min 315 W/m 17,8 C 22,2 C 12,9 km/h (3 Bft)
30.08.2015 15:42 22,3 C 76 % 1017,0 hPa 0,0 l/m 2,8 km/h (1 Bft) NO 37 0 min 265 W/m 17,9 C 22,3 C 6,4 km/h (2 Bft)
30.08.2015 15:45 22,5 C 76 % 1016,9 hPa 0,0 l/m 4,1 km/h (1 Bft) N-NW 335 3 min 436 W/m 18,0 C 22,5 C 8,0 km/h (2 Bft)
30.08.2015 15:48 22,6 C 77 % 1016,9 hPa 0,0 l/m 2,3 km/h (1 Bft) NW 304 0 min 295 W/m 18,4 C 22,6 C 4,8 km/h (1 Bft)
30.08.2015 15:51 22,6 C 76 % 1016,8 hPa 0,0 l/m 4,2 km/h (1 Bft) N 360 3 min 355 W/m 18,1 C 22,6 C 9,7 km/h (2 Bft)
30.08.2015 15:54 22,7 C 76 % 1016,6 hPa 0,0 l/m 2,7 km/h (1 Bft) N-NW 327 3 min 355 W/m 18,2 C 22,7 C 11,3 km/h (2 Bft)
30.08.2015 15:57 22,9 C 74 % 1016,7 hPa 0,0 l/m 5,3 km/h (1 Bft) NW 307 0 min 223 W/m 18,0 C 22,9 C 12,9 km/h (3 Bft)
30.08.2015 16:00 22,8 C 75 % 1016,8 hPa 0,0 l/m 3,6 km/h (1 Bft) NW 316 0 min 244 W/m 18,1 C 22,8 C 11,3 km/h (2 Bft)
30.08.2015 16:03 22,8 C 75 % 1016,8 hPa 0,0 l/m 3,9 km/h (1 Bft) N-NO 32 0 min 195 W/m 18,1 C 22,8 C 8,0 km/h (2 Bft)
30.08.2015 16:06 22,7 C 76 % 1016,8 hPa 0,0 l/m 3,7 km/h (1 Bft) N-NO 15 0 min 146 W/m 18,2 C 22,7 C 11,3 km/h (2 Bft)
30.08.2015 16:09 22,4 C 76 % 1016,8 hPa 0,0 l/m 3,4 km/h (1 Bft) NW 311 0 min 202 W/m 18,0 C 22,4 C 12,9 km/h (3 Bft)
30.08.2015 16:12 22,3 C 79 % 1016,7 hPa 0,0 l/m 2,6 km/h (1 Bft) N-NO 23 0 min 264 W/m 18,5 C 22,3 C 6,4 km/h (2 Bft)
30.08.2015 16:15 22,3 C 78 % 1016,6 hPa 0,0 l/m 2,4 km/h (1 Bft) N-NW 340 3 min 390 W/m 18,3 C 22,3 C 6,4 km/h (2 Bft)
30.08.2015 16:18 22,4 C 77 % 1016,6 hPa 0,0 l/m 4,0 km/h (1 Bft) O-NO 77 3 min 399 W/m 18,2 C 22,4 C 11,3 km/h (2 Bft)
30.08.2015 16:21 22,6 C 77 % 1016,6 hPa 0,0 l/m 4,0 km/h (1 Bft) SO 145 0 min 114 W/m 18,4 C 22,6 C 11,3 km/h (2 Bft)
30.08.2015 16:24 22,3 C 76 % 1016,7 hPa 0,0 l/m 2,4 km/h (1 Bft) S-SW 192 0 min 169 W/m 17,9 C 22,3 C 6,4 km/h (2 Bft)
30.08.2015 16:27 22,4 C 77 % 1016,6 hPa 0,0 l/m 2,9 km/h (1 Bft) NO 51 0 min 257 W/m 18,2 C 22,4 C 8,0 km/h (2 Bft)
30.08.2015 16:30 22,3 C 77 % 1016,6 hPa 0,0 l/m 2,7 km/h (1 Bft) NO 40 0 min 218 W/m 18,1 C 22,3 C 11,3 km/h (2 Bft)
30.08.2015 16:33 22,2 C 76 % 1016,6 hPa 0,0 l/m 4,1 km/h (1 Bft) SO 132 0 min 200 W/m 17,8 C 22,2 C 11,3 km/h (2 Bft)
30.08.2015 16:36 22,1 C 76 % 1016,5 hPa 0,0 l/m 4,6 km/h (1 Bft) O-SO 111 0 min 199 W/m 17,7 C 22,1 C 11,3 km/h (2 Bft)
30.08.2015 16:39 22,2 C 76 % 1016,6 hPa 0,0 l/m 2,4 km/h (1 Bft) NO 39 3 min 367 W/m 17,8 C 22,2 C 6,4 km/h (2 Bft)
30.08.2015 16:42 22,6 C 76 % 1016,5 hPa 0,0 l/m 4,3 km/h (1 Bft) N-NW 329 3 min 410 W/m 18,1 C 22,6 C 9,7 km/h (2 Bft)
30.08.2015 16:45 22,9 C 75 % 1016,4 hPa 0,0 l/m 2,4 km/h (1 Bft) NO 46 3 min 438 W/m 18,2 C 22,9 C 6,4 km/h (2 Bft)
30.08.2015 16:48 22,9 C 75 % 1016,5 hPa 0,0 l/m 2,7 km/h (1 Bft) N 11 0 min 176 W/m 18,2 C 22,9 C 4,8 km/h (1 Bft)
30.08.2015 16:51 22,9 C 75 % 1016,5 hPa 0,0 l/m 5,1 km/h (1 Bft) NO 39 0 min 181 W/m 18,2 C 22,9 C 14,5 km/h (3 Bft)
30.08.2015 16:54 22,7 C 75 % 1016,5 hPa 0,0 l/m 4,5 km/h (1 Bft) N-NW 342 0 min 100 W/m 18,0 C 22,7 C 8,0 km/h (2 Bft)
30.08.2015 16:57 22,4 C 76 % 1016,5 hPa 0,0 l/m 4,5 km/h (1 Bft) NW 322 0 min 116 W/m 18,0 C 22,4 C 14,5 km/h (3 Bft)
30.08.2015 17:00 22,0 C 76 % 1016,6 hPa 0,0 l/m 4,9 km/h (1 Bft) N-NO 13 0 min 218 W/m 17,6 C 22,0 C 9,7 km/h (2 Bft)
30.08.2015 17:03 21,9 C 78 % 1016,5 hPa 0,0 l/m 2,2 km/h (1 Bft) N 355 3 min 526 W/m 17,9 C 21,9 C 4,8 km/h (1 Bft)
30.08.2015 17:06 22,4 C 79 % 1016,4 hPa 0,0 l/m 3,6 km/h (1 Bft) N 5 3 min 357 W/m 18,6 C 22,4 C 9,7 km/h (2 Bft)
30.08.2015 17:09 22,8 C 78 % 1016,3 hPa 0,0 l/m 5,2 km/h (1 Bft) NO 55 3 min 348 W/m 18,8 C 22,8 C 8,0 km/h (2 Bft)
30.08.2015 17:12 22,7 C 75 % 1016,3 hPa 0,0 l/m 4,4 km/h (1 Bft) NW 309 3 min 346 W/m 18,0 C 22,7 C 11,3 km/h (2 Bft)
30.08.2015 17:15 22,4 C 77 % 1016,4 hPa 0,0 l/m 4,8 km/h (1 Bft) N 360 0 min 183 W/m 18,2 C 22,4 C 11,3 km/h (2 Bft)
30.08.2015 17:18 22,3 C 77 % 1016,4 hPa 0,0 l/m 3,8 km/h (1 Bft) N-NO 13 3 min 308 W/m 18,1 C 22,3 C 14,5 km/h (3 Bft)
30.08.2015 17:21 22,3 C 76 % 1016,3 hPa 0,0 l/m 3,2 km/h (1 Bft) W-NW 298 3 min 383 W/m 17,9 C 22,3 C 6,4 km/h (2 Bft)
30.08.2015 17:24 22,6 C 78 % 1016,3 hPa 0,0 l/m 3,6 km/h (1 Bft) NO 42 3 min 309 W/m 18,6 C 22,6 C 8,0 km/h (2 Bft)
30.08.2015 17:27 22,3 C 78 % 1016,3 hPa 0,0 l/m 4,0 km/h (1 Bft) NW 325 0 min 127 W/m 18,3 C 22,3 C 12,9 km/h (3 Bft)
30.08.2015 17:30 22,1 C 79 % 1016,3 hPa 0,0 l/m 3,1 km/h (1 Bft) NW 321 0 min 165 W/m 18,3 C 22,1 C 6,4 km/h (2 Bft)
30.08.2015 17:33 22,1 C 80 % 1016,4 hPa 0,0 l/m 4,4 km/h (1 Bft) N-NO 15 0 min 149 W/m 18,5 C 22,1 C 12,9 km/h (3 Bft)
30.08.2015 17:36 22,1 C 81 % 1016,3 hPa 0,0 l/m 3,0 km/h (1 Bft) N-NO 19 0 min 149 W/m 18,7 C 22,1 C 12,9 km/h (3 Bft)
30.08.2015 17:39 21,9 C 79 % 1016,4 hPa 0,0 l/m 4,0 km/h (1 Bft) N-NW 334 0 min 135 W/m 18,1 C 21,9 C 8,0 km/h (2 Bft)
30.08.2015 17:42 21,9 C 80 % 1016,4 hPa 0,0 l/m 3,4 km/h (1 Bft) N 5 0 min 125 W/m 18,3 C 21,9 C 6,4 km/h (2 Bft)
30.08.2015 17:45 21,9 C 80 % 1016,4 hPa 0,0 l/m 4,3 km/h (1 Bft) N-NO 33 0 min 86 W/m 18,3 C 21,9 C 11,3 km/h (2 Bft)
30.08.2015 17:48 21,9 C 80 % 1016,4 hPa 0,0 l/m 4,7 km/h (1 Bft) O 79 0 min 123 W/m 18,3 C 21,9 C 11,3 km/h (2 Bft)
30.08.2015 17:51 21,7 C 80 % 1016,3 hPa 0,0 l/m 3,3 km/h (1 Bft) N-NO 16 0 min 121 W/m 18,1 C 21,7 C 6,4 km/h (2 Bft)
30.08.2015 17:54 21,6 C 80 % 1016,3 hPa 0,0 l/m 5,9 km/h (2 Bft) NW 326 0 min 118 W/m 18,0 C 21,6 C 12,9 km/h (3 Bft)
30.08.2015 17:57 21,6 C 79 % 1016,3 hPa 0,0 l/m 4,8 km/h (1 Bft) O 79 0 min 121 W/m 17,8 C 21,6 C 14,5 km/h (3 Bft)
30.08.2015 18:00 21,6 C 81 % 1016,3 hPa 0,0 l/m 4,0 km/h (1 Bft) N 355 0 min 100 W/m 18,2 C 21,6 C 8,0 km/h (2 Bft)
30.08.2015 18:03 21,7 C 80 % 1016,4 hPa 0,0 l/m 2,9 km/h (1 Bft) NW 306 0 min 83 W/m 18,1 C 21,7 C 4,8 km/h (1 Bft)
30.08.2015 18:06 21,7 C 81 % 1016,3 hPa 0,0 l/m 4,2 km/h (1 Bft) N-NO 26 0 min 98 W/m 18,3 C 21,7 C 12,9 km/h (3 Bft)
30.08.2015 18:09 21,6 C 81 % 1016,4 hPa 0,0 l/m 3,8 km/h (1 Bft) N-NW 333 0 min 100 W/m 18,2 C 21,6 C 11,3 km/h (2 Bft)
30.08.2015 18:12 21,6 C 80 % 1016,4 hPa 0,0 l/m 4,0 km/h (1 Bft) O-NO 59 0 min 97 W/m 18,0 C 21,6 C 8,0 km/h (2 Bft)
30.08.2015 18:15 21,5 C 80 % 1016,4 hPa 0,0 l/m 3,9 km/h (1 Bft) NO 49 0 min 105 W/m 17,9 C 21,5 C 9,7 km/h (2 Bft)
30.08.2015 18:18 21,6 C 81 % 1016,3 hPa 0,0 l/m 3,9 km/h (1 Bft) N-NO 22 0 min 97 W/m 18,2 C 21,6 C 8,0 km/h (2 Bft)
30.08.2015 18:21 21,4 C 81 % 1016,3 hPa 0,0 l/m 4,0 km/h (1 Bft) N 355 0 min 91 W/m 18,0 C 21,4 C 8,0 km/h (2 Bft)
30.08.2015 18:24 21,4 C 81 % 1016,3 hPa 0,0 l/m 3,8 km/h (1 Bft) N-NO 13 0 min 72 W/m 18,0 C 21,4 C 8,0 km/h (2 Bft)
30.08.2015 18:27 21,4 C 81 % 1016,4 hPa 0,0 l/m 3,6 km/h (1 Bft) O-NO 59 0 min 86 W/m 18,0 C 21,4 C 9,7 km/h (2 Bft)
30.08.2015 18:30 21,4 C 81 % 1016,4 hPa 0,0 l/m 4,5 km/h (1 Bft) N-NO 23 0 min 109 W/m 18,0 C 21,4 C 12,9 km/h (3 Bft)
30.08.2015 18:33 21,3 C 80 % 1016,4 hPa 0,0 l/m 4,2 km/h (1 Bft) NO 36 0 min 79 W/m 17,7 C 21,3 C 8,0 km/h (2 Bft)
30.08.2015 18:36 21,2 C 81 % 1016,4 hPa 0,0 l/m 4,6 km/h (1 Bft) N-NO 31 0 min 79 W/m 17,8 C 21,2 C 8,0 km/h (2 Bft)
30.08.2015 18:39 21,1 C 80 % 1016,3 hPa 0,0 l/m 3,5 km/h (1 Bft) O 96 0 min 90 W/m 17,5 C 21,1 C 11,3 km/h (2 Bft)
30.08.2015 18:42 21,1 C 80 % 1016,4 hPa 0,0 l/m 4,9 km/h (1 Bft) N 9 0 min 77 W/m 17,5 C 21,1 C 14,5 km/h (3 Bft)
30.08.2015 18:45 21,1 C 80 % 1016,4 hPa 0,0 l/m 5,2 km/h (1 Bft) N-NW 340 0 min 65 W/m 17,5 C 21,1 C 11,3 km/h (2 Bft)
30.08.2015 18:48 21,0 C 80 % 1016,4 hPa 0,0 l/m 3,8 km/h (1 Bft) N 355 0 min 49 W/m 17,4 C 21,0 C 12,9 km/h (3 Bft)
30.08.2015 18:51 21,0 C 80 % 1016,4 hPa 0,0 l/m 3,2 km/h (1 Bft) W-NW 297 0 min 53 W/m 17,4 C 21,0 C 8,0 km/h (2 Bft)
30.08.2015 18:54 20,9 C 81 % 1016,3 hPa 0,0 l/m 4,0 km/h (1 Bft) N 5 0 min 54 W/m 17,5 C 20,9 C 11,3 km/h (2 Bft)
30.08.2015 18:57 20,9 C 81 % 1016,3 hPa 0,0 l/m 4,1 km/h (1 Bft) NW 305 0 min 58 W/m 17,5 C 20,9 C 16,1 km/h (3 Bft)
30.08.2015 19:00 20,8 C 80 % 1016,3 hPa 0,0 l/m 4,8 km/h (1 Bft) N-NO 28 0 min 40 W/m 17,2 C 20,8 C 11,3 km/h (2 Bft)
30.08.2015 19:03 20,7 C 80 % 1016,4 hPa 0,0 l/m 3,9 km/h (1 Bft) NO 47 0 min 28 W/m 17,1 C 20,7 C 11,3 km/h (2 Bft)
30.08.2015 19:06 20,7 C 81 % 1016,4 hPa 0,0 l/m 3,7 km/h (1 Bft) N-NO 33 0 min 26 W/m 17,3 C 20,7 C 12,9 km/h (3 Bft)
30.08.2015 19:09 20,7 C 81 % 1016,4 hPa 0,0 l/m 2,9 km/h (1 Bft) O-NO 76 0 min 26 W/m 17,3 C 20,7 C 6,4 km/h (2 Bft)
30.08.2015 19:12 20,7 C 81 % 1016,3 hPa 0,0 l/m 3,4 km/h (1 Bft) N 5 0 min 39 W/m 17,3 C 20,7 C 8,0 km/h (2 Bft)
30.08.2015 19:15 20,6 C 80 % 1016,3 hPa 0,0 l/m 4,4 km/h (1 Bft) N-NW 343 0 min 42 W/m 17,0 C 20,6 C 11,3 km/h (2 Bft)
30.08.2015 19:18 20,5 C 81 % 1016,3 hPa 0,0 l/m 4,0 km/h (1 Bft) W-SW 258 0 min 33 W/m 17,1 C 20,5 C 8,0 km/h (2 Bft)
30.08.2015 19:21 20,6 C 81 % 1016,4 hPa 0,0 l/m 4,1 km/h (1 Bft) NO 42 0 min 32 W/m 17,2 C 20,6 C 11,3 km/h (2 Bft)
30.08.2015 19:24 20,7 C 81 % 1016,4 hPa 0,0 l/m 3,3 km/h (1 Bft) N 11 0 min 39 W/m 17,3 C 20,7 C 9,7 km/h (2 Bft)
30.08.2015 19:27 20,6 C 81 % 1016,3 hPa 0,0 l/m 2,6 km/h (1 Bft) SO 128 0 min 40 W/m 17,2 C 20,6 C 4,8 km/h (1 Bft)
30.08.2015 19:30 20,6 C 81 % 1016,3 hPa 0,0 l/m 2,9 km/h (1 Bft) N-NO 22 0 min 35 W/m 17,2 C 20,6 C 4,8 km/h (1 Bft)
30.08.2015 19:33 20,4 C 81 % 1016,3 hPa 0,0 l/m 5,5 km/h (2 Bft) NO 46 0 min 26 W/m 17,0 C 20,4 C 12,9 km/h (3 Bft)
30.08.2015 19:36 20,4 C 81 % 1016,3 hPa 0,0 l/m 4,2 km/h (1 Bft) N-NW 336 0 min 25 W/m 17,0 C 20,4 C 14,5 km/h (3 Bft)
30.08.2015 19:39 20,4 C 80 % 1016,3 hPa 0,0 l/m 4,9 km/h (1 Bft) N 360 0 min 21 W/m 16,8 C 20,4 C 16,1 km/h (3 Bft)
30.08.2015 19:42 20,3 C 80 % 1016,2 hPa 0,0 l/m 3,8 km/h (1 Bft) N 355 0 min 23 W/m 16,7 C 20,3 C 11,3 km/h (2 Bft)
30.08.2015 19:45 20,2 C 81 % 1016,2 hPa 0,0 l/m 3,4 km/h (1 Bft) N-NW 337 0 min 21 W/m 16,8 C 20,2 C 8,0 km/h (2 Bft)
30.08.2015 19:48 20,2 C 81 % 1016,3 hPa 0,0 l/m 4,6 km/h (1 Bft) N 360 0 min 26 W/m 16,8 C 20,2 C 8,0 km/h (2 Bft)
30.08.2015 19:51 20,2 C 82 % 1016,3 hPa 0,0 l/m 2,3 km/h (1 Bft) O-SO 112 0 min 26 W/m 17,0 C 20,2 C 4,8 km/h (1 Bft)
30.08.2015 19:54 20,2 C 81 % 1016,2 hPa 0,0 l/m 3,3 km/h (1 Bft) N-NO 13 0 min 25 W/m 16,8 C 20,2 C 8,0 km/h (2 Bft)
30.08.2015 19:57 20,2 C 82 % 1016,1 hPa 0,0 l/m 3,0 km/h (1 Bft) NW 325 0 min 19 W/m 17,0 C 20,2 C 6,4 km/h (2 Bft)
30.08.2015 20:00 20,1 C 81 % 1016,2 hPa 0,0 l/m 3,2 km/h (1 Bft) NO 51 0 min 18 W/m 16,7 C 20,1 C 8,0 km/h (2 Bft)
30.08.2015 20:03 20,1 C 81 % 1016,2 hPa 0,0 l/m 4,2 km/h (1 Bft) N-NW 335 0 min 11 W/m 16,7 C 20,1 C 16,1 km/h (3 Bft)
30.08.2015 20:06 20,0 C 82 % 1016,2 hPa 0,0 l/m 3,2 km/h (1 Bft) N 355 0 min 9 W/m 16,8 C 20,0 C 11,3 km/h (2 Bft)
30.08.2015 20:09 19,9 C 82 % 1016,1 hPa 0,0 l/m 2,5 km/h (1 Bft) N-NO 22 0 min 5 W/m 16,7 C 19,9 C 4,8 km/h (1 Bft)
30.08.2015 20:12 19,8 C 82 % 1016,0 hPa 0,0 l/m 2,3 km/h (1 Bft) N-NO 15 0 min 0 W/m 16,6 C 19,8 C 4,8 km/h (1 Bft)
30.08.2015 20:15 19,9 C 82 % 1016,1 hPa 0,0 l/m 3,7 km/h (1 Bft) NO 54 0 min 0 W/m 16,7 C 19,9 C 9,7 km/h (2 Bft)
30.08.2015 20:18 19,8 C 82 % 1016,1 hPa 0,0 l/m 4,5 km/h (1 Bft) NO 51 0 min 0 W/m 16,6 C 19,8 C 14,5 km/h (3 Bft)
30.08.2015 20:21 19,8 C 82 % 1016,2 hPa 0,0 l/m 3,6 km/h (1 Bft) NO 53 0 min 0 W/m 16,6 C 19,8 C 11,3 km/h (2 Bft)
30.08.2015 20:24 19,8 C 82 % 1016,2 hPa 0,0 l/m 3,2 km/h (1 Bft) N-NW 331 0 min 0 W/m 16,6 C 19,8 C 6,4 km/h (2 Bft)
30.08.2015 20:27 19,8 C 82 % 1016,2 hPa 0,0 l/m 3,4 km/h (1 Bft) SO 141 0 min 0 W/m 16,6 C 19,8 C 9,7 km/h (2 Bft)
30.08.2015 20:30 19,8 C 82 % 1016,3 hPa 0,0 l/m 3,8 km/h (1 Bft) N-NW 346 0 min 0 W/m 16,6 C 19,8 C 8,0 km/h (2 Bft)
30.08.2015 20:33 19,8 C 81 % 1016,2 hPa 0,0 l/m 4,2 km/h (1 Bft) N-NO 27 0 min 0 W/m 16,4 C 19,8 C 8,0 km/h (2 Bft)
30.08.2015 20:36 19,8 C 82 % 1016,3 hPa 0,0 l/m 3,7 km/h (1 Bft) N 5 0 min 0 W/m 16,6 C 19,8 C 11,3 km/h (2 Bft)
30.08.2015 20:39 19,8 C 82 % 1016,2 hPa 0,0 l/m 4,1 km/h (1 Bft) N-NW 327 0 min 0 W/m 16,6 C 19,8 C 8,0 km/h (2 Bft)
30.08.2015 20:42 19,7 C 82 % 1016,3 hPa 0,0 l/m 4,3 km/h (1 Bft) N-NW 331 0 min 0 W/m 16,5 C 19,7 C 12,9 km/h (3 Bft)
30.08.2015 20:45 19,7 C 82 % 1016,3 hPa 0,0 l/m 3,5 km/h (1 Bft) S-SW 210 0 min 0 W/m 16,5 C 19,7 C 8,0 km/h (2 Bft)
30.08.2015 20:48 19,6 C 82 % 1016,3 hPa 0,0 l/m 3,0 km/h (1 Bft) W-NW 294 0 min 0 W/m 16,4 C 19,6 C 6,4 km/h (2 Bft)
30.08.2015 20:51 19,4 C 82 % 1016,3 hPa 0,0 l/m 4,0 km/h (1 Bft) W-SW 240 0 min 0 W/m 16,2 C 19,4 C 9,7 km/h (2 Bft)
30.08.2015 20:54 19,4 C 83 % 1016,2 hPa 0,0 l/m 3,6 km/h (1 Bft) NW 323 0 min 0 W/m 16,4 C 19,4 C 8,0 km/h (2 Bft)
30.08.2015 20:57 19,3 C 83 % 1016,2 hPa 0,0 l/m 3,8 km/h (1 Bft) N-NW 345 0 min 0 W/m 16,3 C 19,3 C 11,3 km/h (2 Bft)
30.08.2015 21:00 19,2 C 83 % 1016,2 hPa 0,0 l/m 2,7 km/h (1 Bft) N 350 0 min 0 W/m 16,2 C 19,2 C 6,4 km/h (2 Bft)
30.08.2015 21:03 19,1 C 82 % 1016,2 hPa 0,0 l/m 2,2 km/h (1 Bft) W-NW 302 0 min 0 W/m 16,0 C 19,1 C 4,8 km/h (1 Bft)
30.08.2015 21:06 19,1 C 82 % 1016,2 hPa 0,0 l/m 3,0 km/h (1 Bft) NW 308 0 min 0 W/m 16,0 C 19,1 C 12,9 km/h (3 Bft)
30.08.2015 21:09 19,1 C 82 % 1016,3 hPa 0,0 l/m 3,4 km/h (1 Bft) N 355 0 min 0 W/m 16,0 C 19,1 C 8,0 km/h (2 Bft)
30.08.2015 21:12 19,0 C 82 % 1016,2 hPa 0,0 l/m 4,2 km/h (1 Bft) N-NO 32 0 min 0 W/m 15,9 C 19,0 C 8,0 km/h (2 Bft)
30.08.2015 21:15 18,9 C 83 % 1016,1 hPa 0,0 l/m 2,6 km/h (1 Bft) NO 42 0 min 0 W/m 15,9 C 18,9 C 6,4 km/h (2 Bft)
30.08.2015 21:18 18,8 C 84 % 1016,1 hPa 0,0 l/m 3,6 km/h (1 Bft) N-NO 28 0 min 0 W/m 16,0 C 18,8 C 8,0 km/h (2 Bft)
30.08.2015 21:21 18,7 C 83 % 1016,2 hPa 0,0 l/m 2,2 km/h (1 Bft) W 275 0 min 0 W/m 15,8 C 18,7 C 4,8 km/h (1 Bft)
30.08.2015 21:24 18,7 C 83 % 1016,2 hPa 0,0 l/m 1,7 km/h (1 Bft) O-NO 78 0 min 0 W/m 15,8 C 18,7 C 4,8 km/h (1 Bft)
30.08.2015 21:27 18,7 C 84 % 1016,2 hPa 0,0 l/m 2,0 km/h (1 Bft) N-NO 19 0 min 0 W/m 15,9 C 18,7 C 4,8 km/h (1 Bft)
30.08.2015 21:30 18,6 C 84 % 1016,2 hPa 0,0 l/m 2,1 km/h (1 Bft) N-NW 348 0 min 0 W/m 15,8 C 18,6 C 4,8 km/h (1 Bft)
30.08.2015 21:33 18,5 C 85 % 1016,2 hPa 0,0 l/m 2,4 km/h (1 Bft) N 355 0 min 0 W/m 15,9 C 18,5 C 4,8 km/h (1 Bft)
30.08.2015 21:36 18,5 C 85 % 1016,3 hPa 0,0 l/m 1,4 km/h (1 Bft) N-NO 17 0 min 0 W/m 15,9 C 18,5 C 4,8 km/h (1 Bft)
30.08.2015 21:39 18,4 C 85 % 1016,3 hPa 0,0 l/m 1,8 km/h (1 Bft) NO 43 0 min 0 W/m 15,8 C 18,4 C 4,8 km/h (1 Bft)
30.08.2015 21:42 18,4 C 86 % 1016,3 hPa 0,0 l/m 3,9 km/h (1 Bft) N-NO 29 0 min 0 W/m 16,0 C 18,4 C 9,7 km/h (2 Bft)
30.08.2015 21:45 18,4 C 86 % 1016,3 hPa 0,0 l/m 2,1 km/h (1 Bft) N-NO 13 0 min 0 W/m 16,0 C 18,4 C 4,8 km/h (1 Bft)
30.08.2015 21:48 18,4 C 86 % 1016,3 hPa 0,0 l/m 4,0 km/h (1 Bft) NO 41 0 min 0 W/m 16,0 C 18,4 C 9,7 km/h (2 Bft)
30.08.2015 21:51 18,4 C 86 % 1016,2 hPa 0,0 l/m 2,6 km/h (1 Bft) N-NO 15 0 min 0 W/m 16,0 C 18,4 C 6,4 km/h (2 Bft)
30.08.2015 21:54 18,4 C 86 % 1016,3 hPa 0,0 l/m 2,8 km/h (1 Bft) W 281 0 min 0 W/m 16,0 C 18,4 C 4,8 km/h (1 Bft)
30.08.2015 21:57 18,4 C 86 % 1016,3 hPa 0,0 l/m 2,5 km/h (1 Bft) N 355 0 min 0 W/m 16,0 C 18,4 C 8,0 km/h (2 Bft)
30.08.2015 22:00 18,4 C 86 % 1016,3 hPa 0,0 l/m 2,3 km/h (1 Bft) O 80 0 min 0 W/m 16,0 C 18,4 C 4,8 km/h (1 Bft)
30.08.2015 22:03 18,3 C 86 % 1016,3 hPa 0,0 l/m 2,4 km/h (1 Bft) N-NW 336 0 min 0 W/m 15,9 C 18,3 C 4,8 km/h (1 Bft)
30.08.2015 22:06 18,2 C 87 % 1016,3 hPa 0,0 l/m 1,5 km/h (1 Bft) NO 45 0 min 0 W/m 16,0 C 18,2 C 4,8 km/h (1 Bft)
30.08.2015 22:09 18,1 C 87 % 1016,3 hPa 0,0 l/m 1,1 km/h (1 Bft) O 94 0 min 0 W/m 15,9 C 18,1 C 3,2 km/h (1 Bft)
30.08.2015 22:12 18,0 C 88 % 1016,4 hPa 0,0 l/m 2,3 km/h (1 Bft) O 96 0 min 0 W/m 16,0 C 18,0 C 6,4 km/h (2 Bft)
30.08.2015 22:15 18,0 C 87 % 1016,4 hPa 0,0 l/m 3,2 km/h (1 Bft) NO 41 0 min 0 W/m 15,8 C 18,0 C 8,0 km/h (2 Bft)
30.08.2015 22:18 18,0 C 87 % 1016,4 hPa 0,0 l/m 3,5 km/h (1 Bft) NO 52 0 min 0 W/m 15,8 C 18,0 C 8,0 km/h (2 Bft)
30.08.2015 22:21 18,1 C 87 % 1016,5 hPa 0,0 l/m 3,2 km/h (1 Bft) NO 38 0 min 0 W/m 15,9 C 18,1 C 9,7 km/h (2 Bft)
30.08.2015 22:24 18,1 C 87 % 1016,5 hPa 0,0 l/m 3,0 km/h (1 Bft) O-NO 65 0 min 0 W/m 15,9 C 18,1 C 6,4 km/h (2 Bft)
30.08.2015 22:27 18,0 C 87 % 1016,5 hPa 0,0 l/m 2,8 km/h (1 Bft) O 81 0 min 0 W/m 15,8 C 18,0 C 4,8 km/h (1 Bft)
30.08.2015 22:30 17,9 C 87 % 1016,5 hPa 0,0 l/m 2,9 km/h (1 Bft) N-NO 18 0 min 0 W/m 15,7 C 17,9 C 9,7 km/h (2 Bft)
30.08.2015 22:33 17,8 C 88 % 1016,4 hPa 0,0 l/m 2,2 km/h (1 Bft) N-NW 331 0 min 0 W/m 15,8 C 17,8 C 4,8 km/h (1 Bft)
30.08.2015 22:36 17,8 C 88 % 1016,3 hPa 0,0 l/m 2,0 km/h (1 Bft) N 355 0 min 0 W/m 15,8 C 17,8 C 4,8 km/h (1 Bft)
30.08.2015 22:39 17,7 C 88 % 1016,3 hPa 0,0 l/m 0,9 km/h (0 Bft) N-NW 343 0 min 0 W/m 15,7 C 17,7 C 3,2 km/h (1 Bft)
30.08.2015 22:42 17,6 C 89 % 1016,2 hPa 0,0 l/m 1,8 km/h (1 Bft) NW 315 0 min 0 W/m 15,8 C 17,6 C 4,8 km/h (1 Bft)
30.08.2015 22:45 17,6 C 89 % 1016,1 hPa 0,0 l/m 2,1 km/h (1 Bft) N-NW 347 0 min 0 W/m 15,8 C 17,6 C 4,8 km/h (1 Bft)
30.08.2015 22:48 17,6 C 89 % 1016,1 hPa 0,0 l/m 1,4 km/h (1 Bft) W 264 0 min 0 W/m 15,8 C 17,6 C 4,8 km/h (1 Bft)
30.08.2015 22:51 17,5 C 89 % 1016,0 hPa 0,0 l/m 2,1 km/h (1 Bft) NO 42 0 min 0 W/m 15,7 C 17,5 C 4,8 km/h (1 Bft)
30.08.2015 22:54 17,5 C 89 % 1016,0 hPa 0,0 l/m 1,8 km/h (1 Bft) O 94 0 min 0 W/m 15,7 C 17,5 C 3,2 km/h (1 Bft)
30.08.2015 22:57 17,5 C 89 % 1016,0 hPa 0,0 l/m 2,1 km/h (1 Bft) O-NO 73 0 min 0 W/m 15,7 C 17,5 C 6,4 km/h (2 Bft)
30.08.2015 23:00 17,6 C 89 % 1015,8 hPa 0,0 l/m 2,0 km/h (1 Bft) O-NO 63 0 min 0 W/m 15,8 C 17,6 C 4,8 km/h (1 Bft)
30.08.2015 23:03 17,6 C 88 % 1015,8 hPa 0,0 l/m 1,9 km/h (1 Bft) SO 126 0 min 0 W/m 15,6 C 17,6 C 4,8 km/h (1 Bft)
30.08.2015 23:06 17,6 C 88 % 1015,7 hPa 0,0 l/m 2,1 km/h (1 Bft) S 175 0 min 0 W/m 15,6 C 17,6 C 4,8 km/h (1 Bft)
30.08.2015 23:09 17,6 C 88 % 1015,8 hPa 0,0 l/m 1,3 km/h (1 Bft) O-NO 59 0 min 0 W/m 15,6 C 17,6 C 3,2 km/h (1 Bft)
30.08.2015 23:12 17,6 C 88 % 1015,6 hPa 0,0 l/m 3,0 km/h (1 Bft) N-NO 24 0 min 0 W/m 15,6 C 17,6 C 9,7 km/h (2 Bft)
30.08.2015 23:15 17,6 C 88 % 1015,6 hPa 0,0 l/m 2,4 km/h (1 Bft) NO 49 0 min 0 W/m 15,6 C 17,6 C 4,8 km/h (1 Bft)
30.08.2015 23:18 17,6 C 88 % 1015,5 hPa 0,0 l/m 1,9 km/h (1 Bft) O-NO 57 0 min 0 W/m 15,6 C 17,6 C 4,8 km/h (1 Bft)
30.08.2015 23:21 17,5 C 89 % 1015,4 hPa 0,0 l/m 2,8 km/h (1 Bft) S-SO 159 0 min 0 W/m 15,7 C 17,5 C 4,8 km/h (1 Bft)
30.08.2015 23:24 17,4 C 89 % 1015,3 hPa 0,0 l/m 1,4 km/h (1 Bft) O 88 0 min 0 W/m 15,6 C 17,4 C 3,2 km/h (1 Bft)
30.08.2015 23:27 17,4 C 89 % 1015,3 hPa 0,0 l/m 2,8 km/h (1 Bft) O 96 0 min 0 W/m 15,6 C 17,4 C 4,8 km/h (1 Bft)
30.08.2015 23:30 17,4 C 89 % 1015,2 hPa 0,0 l/m 2,6 km/h (1 Bft) NO 55 0 min 0 W/m 15,6 C 17,4 C 6,4 km/h (2 Bft)
30.08.2015 23:33 17,3 C 90 % 1015,3 hPa 0,0 l/m 3,2 km/h (1 Bft) NO 44 0 min 0 W/m 15,6 C 17,3 C 6,4 km/h (2 Bft)
30.08.2015 23:36 17,3 C 90 % 1015,4 hPa 0,0 l/m 0,9 km/h (0 Bft) NO 46 0 min 0 W/m 15,6 C 17,3 C 1,6 km/h (1 Bft)
30.08.2015 23:39 17,3 C 90 % 1015,4 hPa 0,0 l/m 2,8 km/h (1 Bft) O-NO 65 0 min 0 W/m 15,6 C 17,3 C 8,0 km/h (2 Bft)
30.08.2015 23:42 17,3 C 90 % 1015,4 hPa 0,0 l/m 2,6 km/h (1 Bft) SO 138 0 min 0 W/m 15,6 C 17,3 C 8,0 km/h (2 Bft)
30.08.2015 23:45 17,3 C 90 % 1015,4 hPa 0,0 l/m 1,9 km/h (1 Bft) N-NW 331 0 min 0 W/m 15,6 C 17,3 C 6,4 km/h (2 Bft)
30.08.2015 23:48 17,3 C 90 % 1015,5 hPa 0,0 l/m 3,2 km/h (1 Bft) NO 45 0 min 0 W/m 15,6 C 17,3 C 6,4 km/h (2 Bft)
30.08.2015 23:51 17,3 C 90 % 1015,4 hPa 0,0 l/m 1,3 km/h (1 Bft) NO 50 0 min 0 W/m 15,6 C 17,3 C 3,2 km/h (1 Bft)
30.08.2015 23:54 17,3 C 91 % 1015,4 hPa 0,0 l/m 2,3 km/h (1 Bft) O 97 0 min 0 W/m 15,8 C 17,3 C 4,8 km/h (1 Bft)
30.08.2015 23:57 17,3 C 91 % 1015,4 hPa 0,0 l/m 2,3 km/h (1 Bft) O-NO 78 0 min 0 W/m 15,8 C 17,3 C 6,4 km/h (2 Bft)
_ Min-Zeit 02:06 13:42 23:30 - 00:00 - - - - 02:03 02:06 00:00
Minimum _ 13,1 C 66 % 1015,2 hPa - 0,0 km/h (0 Bft) - - - - 12,1 C 13,1 C 0,0 km/h (0 Bft)
_ Max-Zeit 14:00 02:51 00:00 00:00 14:45 - - 09:18 14:33 17:09 13:36 14:33
Maximum _ 23,8 C 96 % 1020,4 hPa 0,0 l/m 8,7 km/h
N (2 Bft)
- - 3 min 805 W/m 18,8 C 23,7 C 19,3 km/h
N-NO (3 Bft)
Durchschnitt _ 18,2 C 84 % 1018,0 hPa #0,0 l/m 2,4 km/h (1 Bft) N - #4:09 h 243 W/m 15,4 C 18,2 C 6,1 km/h (2 Bft)
copyright by Holger Just